GFSNGP_500_rhum_000.txt.gz
RH
35 38 41 39 36 42 55 60 56 44 43 42 39 33 40 38 32 17 15 16 17 17 18 19 20 22 22 21 19 18 19 18 15 13 11 10 11 11 12 10 8 8 9 13
72 65 68 74 74 67 59 46 38 35 39 44 42 31 18 16 18 20 22 24 24 25 26 26 25 24 22 21 21 21 17 14 11 9 8 9 9 8 7 7 8 8 13 29
92 95 95 91 79 62 46 37 37 39 36 22 15 19 21 24 27 28 28 28 26 25 24 24 23 23 22 22 19 15 12 10 8 8 8 7 7 8 8 10 15 34 54 59
90 91 68 50 46 47 41 37 40 36 15 17 23 25 28 29 29 27 26 24 25 28 26 25 25 24 19 17 13 10 8 8 8 7 7 9 12 18 32 43 51 51 51 52
32 32 33 34 36 38 49 46 29 20 24 24 24 26 28 26 27 29 32 32 31 30 29 25 21 18 15 10 10 10 10 10 8 9 16 30 42 56 54 53 53 51 42 34
24 24 26 35 40 49 37 29 26 26 28 26 26 25 30 30 34 37 37 33 30 27 23 21 18 12 12 12 11 12 11 11 18 38 54 62 66 67 61 52 41 41 39 40
71 60 55 45 35 25 28 29 29 28 27 28 30 32 33 37 37 35 33 30 26 24 23 20 14 15 14 14 14 12 16 34 53 65 77 85 84 78 70 67 59 54 53 45
46 30 30 32 30 31 32 32 33 36 35 33 32 32 36 36 35 33 30 27 28 27 23 17 17 16 16 15 13 20 36 55 72 85 98 96 89 84 72 60 49 42 36 30
34 34 35 35 35 36 36 37 37 37 38 39 39 40 38 36 33 30 30 30 28 26 20 20 19 18 16 14 19 40 61 78 92 96 93 88 72 57 47 41 32 26 22 19
35 36 37 36 37 38 40 41 43 46 48 49 47 43 40 37 35 35 34 32 30 24 23 21 19 17 14 16 41 63 73 83 90 88 78 63 48 35 26 22 20 17 13 9
38 41 41 43 42 42 45 50 54 56 58 55 50 47 46 43 41 39 36 34 30 26 23 20 17 15 20 42 60 73 83 87 76 61 42 27 22 21 19 14 11 10 11 11
42 45 46 46 46 48 50 58 63 67 66 62 57 53 49 48 45 41 36 32 28 23 21 17 14 24 39 57 71 77 75 60 34 22 20 19 16 12 11 13 17 23 31 33
43 43 45 48 51 53 63 67 68 70 68 64 61 56 53 49 44 39 35 30 25 22 17 14 20 39 52 67 71 60 28 20 20 19 14 10 10 12 12 19 24 25 24 19
43 45 50 54 57 62 62 58 62 69 72 68 65 62 53 47 43 39 33 26 22 17 13 17 36 57 65 66 34 21 22 21 16 10 10 13 17 22 24 15 13 12 12 15
48 51 51 56 63 64 66 72 78 80 81 74 66 58 52 47 41 33 25 21 16 13 19 38 56 66 57 26 23 23 23 15 10 13 17 24 24 22 16 12 10 10 10 17
57 64 69 70 72 79 83 86 93 90 78 71 64 56 50 40 28 22 19 17 15 22 46 59 67 54 28 27 25 24 19 13 16 18 21 22 14 15 12 10 10 11 12 12
76 76 80 82 86 90 91 91 88 80 75 66 55 43 31 24 20 18 15 16 25 41 60 70 57 34 31 30 28 25 14 15 16 11 10 9 10 10 11 11 11 11 12 12
85 83 83 92 93 94 93 86 80 75 63 48 35 28 24 21 19 14 10 29 56 68 78 63 44 35 36 34 30 21 15 15 9 8 9 10 11 12 12 12 12 12 12 14
80 81 89 93 90 86 82 78 70 58 44 36 30 27 24 20 14 10 33 58 73 77 73 55 42 41 40 36 29 16 16 16 10 11 11 12 12 13 13 13 14 20 30 32
85 88 85 80 82 81 75 69 59 48 41 34 29 25 21 12 13 39 60 73 87 82 69 53 46 46 42 36 25 15 20 17 11 11 11 11 12 12 13 14 21 37 37 35
79 81 82 82 81 77 72 64 54 47 37 31 25 20 13 25 53 65 73 79 90 84 68 56 52 50 43 34 18 18 23 16 11 11 11 13 18 22 24 25 34 37 38 40
78 82 83 82 79 77 70 61 52 40 32 25 17 14 26 57 68 76 86 89 88 81 67 60 58 52 43 27 15 20 22 14 12 12 12 19 36 43 41 36 33 37 39 40
79 84 85 82 79 74 66 54 42 33 24 15 16 38 58 67 76 81 82 95 88 79 70 65 60 50 36 19 14 21 17 13 13 12 20 36 47 46 44 40 34 36 38 38
75 79 78 75 72 65 53 42 33 23 16 22 51 66 72 76 82 90 88 90 87 78 70 65 56 43 24 14 17 23 16 14 14 22 45 50 49 48 44 35 34 35 38 32
75 75 75 68 56 44 36 29 19 13 29 58 73 80 81 80 75 76 83 87 82 72 68 61 48 30 15 12 24 23 17 15 21 46 52 48 49 46 31 22 31 39 40 38
72 66 57 46 39 34 25 15 14 43 67 75 83 83 82 80 82 91 90 84 74 70 62 51 33 17 10 17 27 22 18 18 43 55 50 49 55 47 48 53 44 44 52 56
57 48 42 34 27 20 17 32 65 73 81 81 81 82 82 90 97 92 83 72 69 60 50 33 17 8 12 28 26 21 18 39 54 54 51 58 64 64 66 65 53 53 68 66

GFSNGP_500_rhum_006.txt.gz
RH
81 77 94 95 97 80 20 3 4 18 23 36 41 50 61 62 51 47 44 49 44 23 20 26 27 25 26 25 27 29 30 28 28 28 28 27 25 22 19 18 15 13 11 8
100 100 99 90 72 17 2 1 3 17 41 51 50 60 66 50 43 48 50 23 20 24 27 28 28 31 33 35 34 33 30 31 32 30 28 25 22 20 18 15 14 11 8 5
98 95 72 37 25 16 9 15 33 34 50 65 72 56 43 56 66 60 27 21 27 31 34 36 37 39 38 36 35 35 35 34 31 29 27 25 22 18 16 14 11 7 7 16
64 38 22 13 22 26 26 38 47 57 72 50 59 69 71 70 71 29 23 29 35 39 40 42 42 41 40 39 39 39 36 34 32 30 27 23 20 17 15 11 7 10 16 18
46 43 39 27 27 42 58 66 77 86 90 76 65 67 66 42 24 26 33 39 44 46 46 45 45 45 46 46 44 41 39 36 33 30 26 22 19 15 10 8 13 20 21 19
72 66 64 68 93 100 95 93 96 95 92 77 72 67 35 27 30 37 44 47 49 52 53 54 53 53 53 51 48 44 40 36 33 28 24 21 16 10 8 16 24 24 22 19
86 95 91 82 82 96 91 70 72 69 58 60 53 32 30 36 44 47 46 49 52 53 57 56 56 57 58 55 49 44 39 36 32 27 22 16 11 9 18 31 28 29 25 17
80 81 76 69 66 46 42 38 46 51 46 32 30 35 42 45 45 47 50 50 52 55 54 54 55 61 62 54 48 43 40 34 30 22 17 11 10 20 40 35 34 33 24 16
83 77 75 70 72 67 55 50 38 31 32 36 41 45 47 46 47 50 49 49 51 52 52 56 69 68 59 52 47 42 38 32 25 20 14 11 23 43 43 40 39 32 21 16
74 67 64 53 43 32 31 32 35 40 42 45 47 47 46 46 48 49 49 53 54 56 66 79 70 62 54 50 45 41 36 28 23 18 13 22 44 51 46 44 39 27 20 11
76 82 74 52 42 39 37 41 42 43 44 45 46 45 47 48 49 53 58 56 64 78 81 72 65 58 53 48 44 40 32 26 20 14 21 38 50 53 50 46 36 25 17 11
47 66 68 68 64 58 50 44 44 43 44 46 48 48 48 50 60 62 62 73 81 81 75 68 62 54 51 47 42 35 28 21 15 19 34 44 46 54 52 45 33 24 13 16
59 69 70 61 51 45 43 43 45 47 49 50 48 49 56 68 69 70 79 83 84 75 68 63 58 54 48 45 36 28 20 14 16 31 42 45 56 58 51 42 32 19 14 19
64 65 61 52 45 44 45 45 45 46 47 48 54 63 74 76 74 76 81 80 73 69 65 62 58 52 46 38 28 19 14 18 27 45 52 58 65 61 50 39 29 15 15 16
55 53 50 44 42 40 39 42 48 55 59 62 70 82 79 76 77 79 75 73 70 68 64 57 54 48 39 29 20 15 17 30 48 58 65 68 66 60 51 38 29 12 15 13
35 34 39 47 59 65 66 64 60 60 68 80 80 78 80 79 74 72 72 72 71 64 55 53 48 38 29 19 15 17 32 53 65 69 66 69 68 58 47 36 23 10 16 10
76 78 74 69 63 59 57 60 71 77 75 78 80 82 76 74 70 66 66 66 59 54 52 46 38 28 19 14 17 30 51 64 66 66 71 71 63 54 42 33 15 11 16 13
63 56 55 57 58 65 78 78 82 86 84 82 74 68 62 58 57 58 57 54 51 49 45 38 28 17 15 19 32 58 68 66 64 69 71 65 59 48 40 23 10 16 16 21
60 69 77 87 86 86 86 80 72 67 66 61 57 54 52 51 51 50 50 51 52 46 35 24 16 17 24 47 65 75 71 64 70 76 69 62 52 43 30 12 11 20 16 28
93 95 93 92 83 72 68 65 62 59 58 56 52 49 49 49 50 51 52 52 44 36 24 15 15 28 49 64 74 73 67 74 78 70 63 53 44 34 14 9 20 19 18 31
96 94 83 72 64 62 59 55 52 50 50 49 48 50 54 54 53 52 49 40 30 22 15 21 40 58 72 74 70 68 76 76 71 65 55 46 36 15 7 18 21 17 31 32
85 79 72 64 61 58 54 52 52 51 49 49 51 51 50 48 44 40 35 27 20 16 22 45 65 73 74 67 69 77 76 70 64 56 48 33 12 7 17 22 18 33 33 24
72 65 57 52 53 55 51 49 49 46 43 40 40 40 38 37 35 32 24 21 17 24 50 70 72 70 69 77 79 72 67 63 57 48 24 11 9 20 24 18 34 34 27 24
51 49 51 51 50 49 50 46 44 41 38 36 33 32 31 31 28 22 15 13 24 56 68 68 66 70 76 73 71 68 62 55 40 16 13 17 27 25 22 38 36 32 28 23
54 51 51 51 50 49 48 45 40 36 34 31 29 28 28 27 18 14 24 59 72 69 65 68 76 78 74 71 68 61 51 25 13 18 24 25 22 25 41 36 33 33 31 24
54 54 55 54 52 51 45 39 35 31 28 25 26 24 20 12 12 37 62 67 63 62 72 79 74 69 68 64 53 33 14 14 20 23 22 22 35 43 36 31 36 34 37 32
58 57 56 56 52 45 40 34 29 26 24 21 18 12 8 24 57 64 64 67 77 82 77 68 67 67 56 34 14 13 17 17 16 19 27 41 42 36 33 37 38 41 45 40

GFSNGP_500_rhum_009.txt.gz
RH
58 56 56 57 66 86 79 69 72 71 30 12 7 16 23 34 50 69 69 57 50 51 43 22 24 23 24 28 30 31 33 34 35 37 39 40 40 39 35 32 29 27 24 19
67 64 64 73 69 66 66 80 76 48 9 11 22 28 36 54 74 72 57 45 63 51 38 40 24 28 34 37 39 39 41 43 44 45 45 48 45 40 35 33 30 26 19 16
88 89 87 56 73 90 97 91 43 10 10 22 30 38 54 70 67 51 48 63 70 60 25 27 35 41 44 44 46 48 49 49 50 53 55 52 45 38 36 32 26 21 16 13
96 96 88 86 95 86 81 60 18 9 16 30 44 67 63 56 62 71 70 62 36 27 34 43 45 45 45 47 51 53 54 55 57 61 57 49 41 39 34 28 22 17 14 10
96 95 87 89 80 39 22 23 21 25 38 60 75 63 78 81 76 72 56 30 29 38 47 46 46 47 49 53 55 57 59 62 65 61 51 44 41 36 29 21 16 13 10 8
99 92 88 65 59 57 39 32 44 62 89 88 86 80 72 78 75 60 32 34 44 47 47 48 49 51 53 56 59 63 69 69 63 52 47 43 37 28 18 12 11 9 10 16
92 93 84 83 88 95 98 92 98 94 89 85 81 74 64 70 60 34 35 43 47 48 47 49 50 52 58 59 64 68 69 64 55 52 46 39 29 19 14 13 10 12 18 28
90 80 80 87 83 80 84 79 80 90 88 75 58 54 62 44 32 37 44 46 46 46 48 50 54 61 58 60 65 67 67 59 55 51 42 32 21 17 14 11 13 23 29 44
84 86 81 68 73 71 68 52 41 40 42 57 54 38 32 38 44 45 45 46 46 47 49 58 62 56 58 66 71 70 61 57 54 45 34 25 20 15 12 13 25 39 48 47
77 92 96 95 92 84 84 81 54 39 33 34 37 41 43 43 43 45 46 47 48 50 62 63 57 56 63 70 68 62 61 56 47 37 28 22 16 12 12 26 48 57 51 47
64 73 84 80 69 61 50 39 34 34 37 40 45 48 45 45 46 48 48 49 54 64 65 63 61 65 68 65 64 62 56 49 39 31 26 18 14 12 19 54 61 55 56 49
31 32 41 58 68 75 75 63 56 55 57 54 46 44 45 46 46 47 53 62 65 67 64 67 71 68 64 62 57 52 47 40 34 29 20 15 13 17 51 59 63 66 61 51
37 21 21 34 53 68 70 69 62 54 47 44 44 44 44 45 57 64 64 67 69 69 76 74 68 63 58 52 47 43 39 36 32 23 16 13 16 34 48 58 61 65 57 49
17 13 15 36 62 76 73 62 51 43 41 39 40 49 65 65 62 64 68 69 77 77 69 63 57 50 46 43 40 38 32 31 25 18 15 17 34 54 59 56 56 54 52 42
18 25 40 62 64 53 45 38 35 35 48 65 68 61 59 63 67 72 79 78 68 59 52 48 46 44 44 42 39 31 27 24 20 15 18 34 55 64 64 62 57 52 44 37
69 82 83 67 45 33 34 54 72 72 62 56 59 66 68 74 77 72 65 57 49 44 41 42 43 44 39 31 26 26 25 19 17 20 33 59 68 64 63 61 56 50 40 28
45 42 42 52 74 84 77 64 55 55 62 71 72 76 72 64 61 55 49 45 44 43 44 43 37 31 26 22 23 23 19 18 21 42 66 67 62 61 61 59 50 40 28 9
94 94 89 69 55 52 51 57 68 72 74 76 70 66 57 51 48 46 46 43 37 33 30 27 24 22 22 22 21 19 17 24 49 65 64 60 60 60 58 51 43 27 8 9
51 50 48 49 56 66 75 78 79 77 68 65 61 55 50 48 46 41 35 31 28 28 26 24 22 21 21 20 17 17 33 55 65 64 62 60 60 58 51 40 20 9 9 20
48 54 67 77 84 84 84 83 76 70 67 62 56 48 44 40 36 31 29 27 24 24 23 21 20 20 20 15 25 47 59 63 64 61 57 58 54 48 36 14 11 12 22 19
84 81 81 86 86 88 87 80 69 62 56 50 43 37 32 30 29 27 26 25 24 23 20 18 17 15 13 31 52 60 63 62 57 54 53 50 43 25 12 16 21 24 20 30
90 92 92 89 83 76 68 62 55 48 41 36 33 30 30 30 29 28 28 27 24 19 16 14 10 20 42 57 63 65 61 53 51 49 46 32 14 12 20 24 23 21 31 26
82 80 76 68 61 55 50 47 43 38 36 34 33 34 35 35 34 32 28 24 20 16 10 9 32 51 61 66 63 55 52 50 46 35 16 11 14 19 22 20 22 32 27 22
70 65 61 57 53 50 46 43 41 41 40 37 38 40 40 38 34 29 24 19 14 8 10 32 57 65 62 57 56 53 49 39 18 10 13 15 15 17 19 26 33 28 21 22
65 62 55 50 50 47 43 43 44 43 45 47 48 47 42 35 30 25 19 12 6 9 46 64 65 63 59 57 54 49 29 10 11 16 16 14 14 18 32 34 28 23 22 22
70 64 60 59 56 52 53 52 50 52 55 56 51 44 37 31 27 20 12 4 10 46 64 64 61 58 60 57 46 18 10 15 16 17 20 26 29 38 34 29 26 23 24 20
64 65 65 63 62 60 58 59 63 64 60 54 45 38 32 27 18 9 6 19 47 61 63 60 61 62 59 43 12 11 16 16 18 31 49 47 42 29 18 22 27 28 26 28

GFSNGP_500_rhum_015.txt.gz
RH
69 56 69 96 94 91 81 85 66 70 66 71 93 67 54 47 43 50 35 21 12 18 34 50 68 67 56 64 64 61 46 32 36 42 42 44 48 51 52 52 48 53 61 65
81 77 80 76 73 65 67 61 64 58 63 88 63 63 55 46 47 46 23 12 20 35 50 64 72 56 64 69 56 47 32 42 43 43 45 51 53 53 56 53 57 66 67 59
85 75 74 60 58 52 52 52 51 55 65 65 57 72 52 58 52 28 13 14 28 42 63 62 61 71 72 67 44 35 42 46 46 46 53 55 55 60 58 64 69 63 56 40
82 83 69 52 54 61 55 52 51 58 65 56 53 61 63 52 15 8 12 25 46 60 60 63 72 77 72 62 42 44 47 48 48 56 56 60 61 62 68 66 59 50 38 28
84 84 80 74 74 69 67 70 69 63 58 54 58 69 60 22 8 15 28 47 61 64 71 76 86 93 86 43 46 48 49 51 57 54 62 62 68 68 59 50 43 38 33 26
83 87 80 80 71 65 61 66 63 65 70 75 81 79 45 24 27 40 60 71 75 77 79 91 94 72 40 48 50 51 51 55 56 64 68 70 58 45 39 41 34 25 19 15
87 76 84 98 89 85 80 77 78 72 64 44 41 41 39 46 55 77 88 84 92 91 84 87 48 43 51 51 50 52 52 60 65 69 61 47 38 38 29 19 18 16 14 13
98 92 93 97 95 97 92 85 93 89 76 69 72 70 75 85 84 90 94 92 66 68 54 39 49 52 51 50 53 57 63 67 66 51 40 36 25 17 16 16 15 15 14 13
92 95 99 96 98 95 100 96 86 83 81 83 85 86 86 88 66 47 52 71 67 40 47 56 58 50 50 59 64 65 70 56 44 38 28 16 14 14 17 17 16 15 13 10
97 95 99 96 98 92 94 88 84 82 76 77 74 64 65 61 71 59 37 39 46 63 67 51 50 61 69 70 67 64 50 40 34 19 15 15 18 19 18 16 15 14 10 7
95 95 95 84 74 73 87 96 92 90 87 88 89 85 63 54 39 46 59 76 71 55 50 61 71 74 66 65 52 44 39 29 18 16 17 19 21 21 18 16 13 8 10 19
91 95 95 88 72 57 51 53 64 76 79 79 77 76 73 70 74 82 82 71 59 58 71 74 67 67 54 45 41 37 24 20 17 18 20 18 20 19 18 14 7 9 22 37
91 78 53 44 42 44 45 39 24 19 18 20 29 43 64 76 74 71 61 45 45 65 68 67 62 49 42 39 32 24 22 17 17 17 16 22 23 19 17 7 9 24 37 40
54 50 43 40 42 44 45 39 21 13 14 17 25 54 71 64 49 38 39 67 70 64 69 56 47 43 38 31 24 18 15 17 17 19 23 26 21 17 7 6 17 32 39 40
40 33 36 37 34 34 26 20 20 22 35 57 70 58 45 39 46 73 74 60 70 64 54 47 41 35 28 21 17 17 18 20 22 28 30 23 17 8 8 21 33 38 39 35
48 51 36 27 28 29 28 27 45 69 85 69 46 42 58 85 79 55 71 74 63 54 47 39 31 25 19 16 16 19 23 27 33 33 25 18 9 9 23 34 39 40 32 12
36 30 30 30 28 29 46 55 50 45 46 61 86 94 73 51 70 79 75 65 53 44 36 30 21 19 16 18 23 26 31 36 38 28 20 10 9 22 36 40 41 33 12 13
27 26 23 25 42 55 58 68 79 88 91 80 56 51 65 80 77 72 59 48 40 34 26 20 18 18 20 22 28 37 43 44 34 22 11 9 22 35 39 42 36 12 13 13
40 42 59 72 78 83 83 75 64 56 55 51 61 80 76 73 62 52 45 38 29 24 20 18 19 21 24 33 41 50 49 38 25 13 10 20 33 40 43 38 12 12 12 14
83 77 68 63 58 56 55 53 54 51 58 82 74 71 67 57 49 42 33 27 23 20 21 24 25 31 41 48 56 55 43 28 14 10 18 31 40 44 38 12 12 11 11 16
74 73 70 66 61 56 53 54 64 85 82 75 71 63 55 48 41 35 30 28 27 26 29 32 37 44 56 63 60 48 31 16 9 16 30 40 44 34 12 12 12 12 13 18
58 57 57 60 70 77 83 91 91 80 74 70 61 55 49 47 44 39 34 28 32 36 37 42 52 63 69 66 53 34 18 10 16 30 43 45 29 11 12 12 22 18 17 23
58 60 70 82 89 98 99 92 81 75 69 64 60 61 58 45 34 32 36 42 41 42 45 53 66 74 70 56 36 19 10 17 34 44 44 23 11 12 12 22 26 20 22 21
73 77 85 97 100 100 96 82 77 76 74 70 73 62 47 38 39 45 45 44 46 52 59 70 76 71 54 36 19 10 18 34 44 43 16 11 12 14 25 31 28 24 19 16
87 94 100 100 99 90 83 84 84 80 80 69 55 50 48 51 53 50 48 50 55 62 71 74 66 50 33 16 10 19 37 45 39 11 11 13 16 29 31 29 26 18 10 13
100 99 98 98 95 92 87 85 82 75 66 59 58 58 58 56 54 52 54 59 65 70 71 60 45 29 14 10 19 37 45 30 9 13 13 17 29 28 26 23 19 6 10 17
97 98 97 95 93 90 87 82 76 72 69 66 65 65 63 59 56 58 61 66 69 65 53 41 23 12 11 21 40 45 18 10 15 15 16 27 26 21 14 11 8 7 14 22

GFSNGP_500_rhum_018.txt.gz
RH
94 72 94 98 95 95 88 82 76 85 66 57 62 68 64 62 57 49 42 39 40 47 37 22 12 18 36 59 74 63 64 70 58 46 39 41 45 48 58 61 60 56 58 60
98 96 84 74 65 74 80 94 91 84 78 72 54 54 74 70 58 49 45 43 46 45 26 16 16 34 58 73 63 68 76 64 65 51 43 47 48 58 63 62 59 63 50 34
61 65 75 76 75 78 71 70 69 82 82 92 76 72 70 57 53 57 56 62 44 24 18 17 35 57 66 63 78 90 77 92 48 46 50 50 57 64 64 62 64 42 28 13
78 76 73 71 64 62 65 60 53 54 61 68 60 59 65 59 56 62 62 41 16 12 19 36 56 62 67 83 96 96 85 42 47 51 51 57 64 65 65 58 37 21 12 11
83 69 78 74 71 65 55 65 54 53 60 48 48 57 64 59 57 67 52 20 12 23 39 60 67 72 80 93 96 60 42 52 52 51 59 67 67 69 49 34 17 13 12 12
74 74 87 82 78 70 56 61 53 54 55 44 63 60 59 68 78 65 38 28 42 66 85 99 98 95 82 83 54 44 54 53 52 65 74 68 68 45 32 17 15 13 12 12
84 74 72 92 93 81 77 75 69 65 63 62 58 63 77 76 66 54 41 51 82 93 92 96 89 76 84 45 49 58 51 56 74 78 67 60 43 32 18 14 11 12 14 17
82 77 97 88 93 96 99 97 80 71 77 80 77 67 48 38 42 64 82 83 73 57 60 74 90 58 46 58 58 51 68 79 71 65 49 40 29 20 13 12 14 16 21 20
90 95 96 97 97 95 95 96 98 98 97 94 88 84 90 90 82 76 72 82 69 74 73 48 44 58 65 52 58 79 77 67 58 42 36 25 20 13 14 16 19 24 24 22
94 97 89 97 98 98 96 94 96 95 92 90 87 82 79 73 63 61 74 77 48 40 50 69 80 68 58 65 82 71 65 49 40 33 25 16 14 14 17 22 26 28 26 19
91 96 94 98 97 97 97 87 75 85 95 93 88 83 82 81 78 66 54 49 58 76 85 76 62 49 58 77 67 61 46 38 30 23 15 13 15 18 24 30 34 30 21 11
95 98 98 98 87 84 94 86 66 57 56 56 53 52 51 52 54 60 74 82 80 72 60 45 50 75 72 67 54 44 36 28 20 14 14 15 19 27 38 42 36 24 10 8
98 84 96 90 66 54 44 46 48 46 40 27 17 14 15 19 31 53 71 69 56 39 42 68 74 66 64 52 43 32 25 19 15 15 16 21 30 38 40 42 30 12 8 19
93 97 97 73 48 41 41 42 41 44 40 21 18 20 24 36 52 63 56 43 44 70 75 64 69 61 52 40 31 22 18 15 15 20 26 34 42 45 47 40 20 7 16 30
82 69 54 48 38 35 40 36 29 25 26 26 27 34 55 76 66 46 52 82 75 59 69 68 63 51 38 30 22 18 16 20 24 33 40 45 50 53 44 22 8 13 29 31
60 62 53 40 34 37 43 28 27 29 28 34 56 66 53 41 65 92 73 53 69 70 65 60 46 38 29 22 20 22 25 29 34 38 41 53 58 48 26 10 14 29 32 12
44 42 42 47 50 40 31 29 26 26 42 54 55 67 88 97 71 51 60 70 66 63 54 44 36 28 25 23 26 27 31 35 36 42 56 60 52 29 12 13 28 32 12 10
44 37 36 34 29 27 26 30 46 64 75 89 98 92 68 54 54 69 71 67 60 50 43 33 30 29 24 28 32 35 34 35 45 56 60 52 30 12 12 27 32 12 10 9
33 32 30 31 36 43 58 76 88 94 83 70 64 55 52 65 78 75 69 58 51 43 38 37 32 30 34 37 36 33 36 44 55 58 50 29 13 12 27 31 13 10 9 12
86 86 86 86 89 86 78 67 63 64 60 55 52 60 83 85 79 70 59 52 46 45 37 32 39 39 37 34 34 38 45 53 55 47 29 13 10 25 30 13 10 10 13 16
95 97 98 94 86 81 77 66 59 57 62 68 82 94 88 83 73 61 56 58 51 39 36 41 41 38 34 34 38 46 54 53 43 28 12 10 24 28 11 10 11 14 19 16
83 81 77 70 61 57 57 58 61 71 86 97 99 92 89 77 66 64 67 59 44 43 44 42 39 34 34 39 47 50 50 41 27 12 10 26 25 9 11 12 16 23 19 17
52 52 52 53 56 57 58 69 84 98 100 100 100 94 83 76 74 69 52 49 50 47 44 40 38 39 43 47 46 45 38 24 11 14 27 19 9 14 14 18 23 23 20 16
56 58 61 66 69 76 90 100 100 100 100 100 95 91 86 76 62 56 57 55 50 47 44 44 43 42 44 42 40 34 21 11 18 24 10 10 20 17 16 22 21 20 17 11
78 80 84 90 98 100 100 100 100 100 100 97 92 84 72 68 66 63 58 51 49 49 46 42 41 44 41 35 30 19 12 20 18 8 14 22 21 16 21 20 18 18 8 13
81 82 87 92 95 95 95 96 98 95 89 82 76 73 71 68 65 58 55 55 51 45 41 42 45 38 31 27 17 13 20 12 8 21 23 20 16 20 19 12 11 6 10 34
85 86 85 85 86 90 90 87 81 76 74 73 73 72 70 64 62 62 57 51 45 44 46 44 35 29 25 15 17 19 9 15 25 22 13 14 21 17 8 6 6 7 24 82

GFSNGP_500_rhum_021.txt.gz
RH
74 86 96 98 97 97 99 100 98 88 87 71 64 63 63 64 57 51 48 47 44 41 40 40 44 48 28 17 17 26 57 83 68 79 90 70 86 57 50 70 60 69 67 60
87 70 88 96 97 98 96 93 91 97 93 86 75 62 62 56 58 60 58 52 50 48 48 49 48 32 19 26 39 66 79 65 82 96 98 94 47 59 78 56 74 68 65 54
100 90 84 83 92 98 98 98 97 97 89 89 80 74 67 60 53 61 61 55 56 58 55 49 23 22 38 50 70 71 67 79 90 97 69 50 79 60 60 76 68 66 47 36
100 99 100 83 84 96 92 86 80 95 82 82 72 65 70 72 70 60 57 55 56 56 49 19 15 29 47 64 70 73 86 96 94 64 55 61 57 70 76 67 58 41 32 22
87 94 93 92 81 70 70 66 63 62 74 74 62 52 51 58 63 62 59 58 61 60 26 20 38 62 77 94 99 98 81 88 64 58 61 57 80 73 67 47 38 28 21 13
77 85 82 82 79 76 72 63 57 63 57 50 57 60 60 53 55 58 60 75 75 58 36 44 74 96 98 97 100 95 93 60 56 60 62 88 72 64 42 35 27 14 11 13
68 74 76 80 78 78 84 71 61 61 63 61 58 58 59 66 73 70 76 74 58 45 59 88 78 72 73 82 93 67 51 61 63 84 85 71 56 42 34 24 13 12 15 18
79 91 94 81 84 87 85 88 72 61 60 62 66 69 72 81 80 64 51 49 73 82 82 87 79 85 86 59 48 59 87 76 74 78 71 52 41 32 20 13 14 16 18 20
87 94 98 98 92 94 93 85 82 81 76 74 76 80 78 73 70 79 78 77 75 76 86 88 83 52 43 66 90 82 54 74 75 69 49 40 28 18 14 16 18 20 20 21
95 89 80 92 93 94 93 89 88 90 90 91 89 88 89 87 83 81 81 87 85 80 76 58 50 67 83 79 55 61 77 70 64 49 38 27 18 15 19 21 22 22 23 29
91 95 92 83 89 95 93 88 87 88 85 81 82 84 88 92 92 90 84 80 75 74 79 84 84 76 53 54 75 70 69 60 48 37 27 18 18 22 23 25 25 27 33 39
82 87 94 88 90 91 96 96 90 92 88 80 67 57 48 36 24 20 22 31 46 64 72 61 43 48 74 68 66 70 60 48 38 27 19 22 23 26 31 30 37 44 49 38
96 97 97 98 96 94 91 66 52 48 49 48 47 40 24 18 20 23 31 56 68 52 39 47 78 70 59 72 72 62 48 38 27 21 26 28 27 25 25 34 43 47 36 18
100 98 95 96 93 82 66 50 47 49 48 49 40 26 27 28 34 54 77 77 51 49 83 73 54 65 74 72 62 47 38 26 23 29 28 26 26 27 30 32 36 36 20 8
97 92 97 97 89 68 48 42 46 44 33 28 30 30 27 39 63 73 54 48 84 80 53 59 67 72 68 57 46 35 28 28 30 27 24 24 26 28 30 38 36 22 8 15
83 91 88 76 58 51 47 47 49 45 34 31 28 29 46 54 53 55 85 92 58 54 64 72 72 64 54 44 35 32 32 31 28 24 25 25 27 30 35 34 21 9 15 11
48 48 47 46 49 47 47 48 43 33 30 30 45 65 72 81 93 96 66 55 56 71 77 73 62 54 46 41 30 34 35 34 29 28 26 26 27 31 31 19 9 15 10 9
77 76 69 57 50 41 34 31 30 31 36 50 76 93 97 89 68 61 53 64 83 82 74 63 55 50 43 33 35 36 37 32 30 27 27 29 30 29 18 10 14 9 9 11
34 33 35 36 37 35 35 40 47 63 88 96 83 67 66 59 55 55 81 92 86 76 65 60 61 48 37 37 38 38 35 32 30 28 29 28 26 18 11 14 9 9 14 11
53 66 72 75 80 84 88 93 92 85 76 77 78 64 59 64 72 96 99 92 83 72 67 65 46 39 41 41 41 38 33 30 28 28 26 23 17 12 14 8 10 17 13 17
77 81 88 90 92 98 100 99 97 92 76 67 65 73 83 93 100 100 97 92 82 78 62 48 46 48 45 46 40 33 30 28 29 27 23 16 11 12 8 13 19 15 18 16
91 94 95 97 94 90 84 74 66 66 67 73 86 96 100 100 100 98 97 94 81 62 56 52 51 49 47 38 33 30 28 29 27 24 15 12 12 10 18 20 17 17 17 14
72 73 71 67 62 57 58 64 69 70 78 91 99 100 100 100 99 97 90 76 68 60 53 52 52 43 37 32 30 29 29 29 27 15 12 12 12 20 19 14 15 18 16 14
50 51 52 52 56 61 66 70 75 84 97 100 100 98 96 96 93 80 70 63 57 55 55 49 41 35 32 32 30 32 32 32 19 12 12 13 19 18 11 14 17 15 16 11
77 76 76 76 78 80 82 88 97 100 100 100 98 96 89 78 71 66 63 60 58 54 47 40 35 35 35 30 33 36 35 24 12 12 14 17 13 10 15 15 9 13 9 28
62 66 72 77 81 86 90 93 95 96 93 87 84 80 75 71 66 60 57 54 50 45 39 38 36 35 30 34 37 37 25 13 13 15 16 8 11 17 13 6 7 6 21 82
69 74 77 80 84 88 92 91 91 89 90 87 80 73 66 60 58 55 50 48 43 40 38 36 33 29 31 35 36 23 14 13 14 18 9 14 18 12 7 5 6 17 76 57

GFSNGP_500_rhum_024.txt.gz
RH
93 94 98 95 98 96 95 99 99 98 98 96 84 94 74 73 68 62 58 55 52 47 44 44 46 48 51 50 44 38 30 24 30 51 70 65 66 84 98 92 58 83 74 75
96 98 98 99 99 96 96 99 98 92 98 91 93 78 76 75 71 69 68 65 60 55 52 51 50 49 52 45 35 25 22 35 49 66 67 77 96 100 84 72 82 74 80 68
88 89 97 99 99 97 98 98 98 98 98 98 97 91 85 80 79 81 78 74 70 62 58 56 58 56 47 34 21 21 32 57 72 81 97 98 95 90 84 68 73 85 69 48
98 99 91 99 98 94 93 88 80 77 78 75 76 79 80 81 82 82 82 73 64 58 59 60 57 45 25 18 26 45 71 87 97 100 97 94 87 63 65 84 82 69 46 37
95 99 92 99 93 86 90 75 70 78 81 89 90 84 86 80 80 73 67 65 64 62 62 66 53 36 31 43 68 88 96 93 94 95 90 60 61 84 84 81 67 46 34 23
85 88 78 77 83 75 68 68 61 62 66 68 86 81 84 69 62 55 52 56 57 62 80 74 63 50 53 81 90 81 78 90 98 76 56 81 74 72 81 62 46 33 22 16
65 75 74 79 77 76 78 71 68 62 61 54 58 58 51 50 51 54 60 65 75 80 72 58 51 66 90 87 77 88 97 73 52 80 86 60 77 77 57 45 32 20 18 17
84 82 76 78 76 85 77 66 66 64 60 60 61 62 62 63 68 74 76 76 66 51 56 77 86 86 91 96 95 75 48 69 90 68 64 79 74 56 43 31 20 20 19 21
75 70 73 86 87 86 91 91 88 84 84 86 85 83 81 81 77 74 74 79 82 81 80 78 83 90 93 74 52 70 83 75 58 73 76 71 56 42 30 22 21 20 18 16
87 86 90 100 97 91 99 100 100 100 100 100 100 100 100 97 96 95 91 87 83 90 93 89 77 69 70 80 85 76 53 68 73 78 71 57 41 28 23 22 21 20 19 19
95 90 91 92 89 90 96 96 96 100 100 100 98 90 86 85 85 87 89 91 86 72 53 41 42 58 70 61 45 67 71 71 82 72 55 39 27 25 25 23 23 22 22 21
90 78 80 87 92 89 92 93 93 95 95 89 87 96 92 81 62 40 22 17 20 26 39 56 66 58 44 70 75 62 79 82 70 50 36 29 28 29 28 27 26 24 22 25
78 82 87 94 97 96 94 96 96 84 57 49 48 48 45 42 28 24 27 29 38 55 77 69 46 74 85 57 71 82 78 61 47 36 30 29 29 31 30 28 25 26 27 22
83 94 97 94 96 98 97 87 79 67 53 51 50 49 37 30 31 28 30 47 69 73 50 62 90 64 58 78 80 72 57 47 39 30 29 31 34 32 25 21 22 27 22 14
98 99 99 96 95 95 90 64 50 48 50 46 37 31 32 31 30 35 48 60 53 55 93 80 56 64 81 79 68 57 50 42 34 32 36 38 30 23 22 24 27 22 15 9
99 99 94 99 99 95 84 61 50 48 47 45 43 36 31 29 38 54 65 68 93 89 65 55 69 86 81 68 58 56 50 37 36 40 40 29 23 20 22 27 23 16 9 9
87 89 79 68 65 57 54 50 48 50 49 43 34 31 33 49 80 96 100 93 69 59 55 81 91 83 70 63 64 53 41 41 43 37 27 22 22 23 26 26 21 10 10 10
52 52 53 52 56 64 66 57 47 37 31 31 32 41 75 100 98 78 69 64 56 61 93 95 91 79 73 71 54 47 46 44 35 28 25 25 24 26 27 26 13 10 12 18
56 66 78 76 54 34 29 32 36 39 44 61 83 94 86 71 85 80 66 62 77 95 96 94 87 83 76 59 53 47 42 35 29 26 24 23 24 26 29 16 10 12 18 17
68 54 42 41 50 65 73 75 79 86 94 96 95 94 94 89 74 72 79 93 97 96 94 84 78 72 63 52 44 40 38 30 26 24 23 24 24 28 19 11 11 16 15 13
42 42 57 75 84 95 98 99 99 99 98 95 92 82 76 76 81 92 98 97 94 87 81 78 70 58 49 45 40 32 25 24 25 25 24 22 28 20 11 11 13 12 11 13
75 82 90 94 94 94 94 91 90 91 82 72 71 71 76 90 95 96 94 90 85 82 73 64 56 49 43 33 28 26 27 28 26 24 22 30 22 11 12 11 9 11 14 14
89 88 86 86 85 82 78 73 68 62 62 68 74 86 96 95 91 90 89 84 75 68 62 53 46 40 33 31 30 30 28 26 22 22 31 19 12 12 13 9 14 15 14 13
52 52 51 50 51 51 52 54 60 71 82 90 95 93 89 88 89 86 76 74 69 59 50 47 42 36 33 31 29 28 26 23 24 33 17 14 12 14 11 16 14 9 13 23
54 54 54 59 67 73 79 86 90 92 95 94 89 87 88 83 81 79 72 62 56 53 47 41 37 34 32 30 30 28 24 26 36 16 14 12 13 12 14 13 6 10 18 76
73 73 71 68 72 79 84 87 88 87 88 89 90 89 85 80 74 67 61 55 48 43 40 39 36 34 32 32 28 25 28 37 18 15 12 13 12 14 11 6 7 13 72 41
75 72 70 72 77 80 82 84 84 86 88 87 87 86 84 78 69 61 54 49 46 44 41 38 37 36 32 27 25 30 37 19 16 12 13 13 14 10 6 5 10 68 49 47

GFSNGP_500_rhum_027.txt.gz
RH
100 92 99 96 100 95 98 100 98 100 100 99 80 84 94 97 98 81 57 70 75 78 72 66 62 56 50 45 45 51 53 48 42 35 22 31 38 58 71 87 94 94 92 71
92 96 100 98 98 97 100 96 97 98 87 80 96 99 84 96 89 75 83 81 75 68 60 56 53 54 54 52 53 51 49 43 30 24 30 44 71 90 96 98 98 83 60 79
92 98 98 97 98 94 100 98 98 96 99 99 92 96 92 99 93 85 78 73 69 66 61 59 58 56 53 52 52 51 40 22 24 37 62 86 98 95 100 98 61 69 82 71
96 99 98 98 98 96 96 98 96 97 83 80 89 99 100 94 95 89 84 80 75 73 70 64 57 56 56 57 50 32 25 33 56 80 97 89 90 100 91 65 88 68 69 82
96 98 98 99 98 98 96 98 95 99 97 95 98 99 99 98 98 100 100 97 91 78 65 60 60 62 62 56 40 41 53 78 99 95 83 94 99 66 81 91 61 77 76 57
82 76 79 98 99 95 94 85 99 100 89 100 98 99 97 97 98 92 84 77 70 66 64 64 67 74 71 63 55 67 97 100 89 94 100 77 60 90 74 63 80 73 51 32
73 79 73 65 69 81 80 82 81 79 92 96 98 96 91 87 80 66 59 56 55 59 65 75 84 76 58 62 91 97 93 96 100 80 58 82 83 62 71 79 70 47 29 28
74 69 77 69 68 71 70 60 60 65 67 73 70 74 84 78 65 51 55 65 74 80 82 68 56 73 91 91 90 94 98 85 65 84 88 63 65 76 81 66 42 30 29 30
72 77 75 74 70 66 72 78 84 78 68 62 65 66 63 62 69 76 79 79 74 69 78 86 87 85 88 93 89 76 77 86 86 58 63 74 78 81 58 39 31 30 31 29
82 88 83 79 86 84 86 87 90 96 90 82 80 84 86 86 86 86 89 94 96 94 90 91 94 90 81 72 62 69 71 53 62 77 70 83 73 50 38 31 32 35 31 20
82 96 94 83 86 84 88 98 100 96 96 94 94 93 94 94 94 94 95 97 95 86 56 37 35 34 45 64 68 53 62 82 64 73 78 63 49 38 33 37 36 30 21 16
77 87 96 93 89 88 90 93 96 96 96 97 98 96 94 98 100 97 76 40 22 23 26 29 43 64 76 62 59 88 68 62 77 73 58 50 41 39 38 35 27 22 20 19
95 84 84 93 95 97 96 94 92 98 98 97 86 67 53 50 48 44 29 29 28 29 39 59 76 68 52 87 85 58 71 80 70 59 55 48 41 40 36 30 27 24 20 19
92 80 80 92 98 99 97 96 99 91 73 65 59 56 51 47 37 30 32 30 31 41 57 66 52 76 94 65 60 82 81 71 62 63 53 44 43 37 32 26 21 20 19 20
98 85 88 90 99 100 100 97 89 71 57 54 50 45 42 38 35 33 31 33 43 57 62 72 94 80 58 69 86 82 75 70 69 55 49 45 38 29 20 20 19 19 21 21
95 96 91 99 97 98 95 85 66 56 51 48 48 46 46 43 35 34 37 52 77 93 99 86 68 57 73 85 85 80 77 72 58 52 43 33 23 21 20 21 21 21 20 14
88 98 100 98 99 97 95 90 74 60 54 50 51 49 40 36 35 42 71 95 98 83 76 67 63 77 84 85 82 80 69 60 49 40 28 24 22 22 22 22 21 20 13 9
93 96 95 86 69 61 58 58 61 64 60 48 34 31 33 40 60 88 91 78 84 82 68 74 77 84 86 82 78 67 55 47 35 30 28 24 23 22 22 22 22 12 10 10
67 61 62 63 67 73 76 75 66 40 31 37 46 63 84 91 90 90 93 89 74 72 73 81 87 86 81 74 61 53 44 36 34 29 24 24 23 24 22 22 12 10 10 8
62 58 60 63 74 80 62 41 48 62 71 86 99 99 99 97 93 86 75 71 72 80 85 87 86 82 69 60 50 43 40 34 29 27 27 23 24 22 23 14 10 11 10 9
82 82 80 68 54 46 50 73 92 99 100 100 100 98 89 79 72 70 68 79 82 88 89 87 77 65 56 49 44 38 33 32 30 29 26 24 20 22 14 10 11 10 12 13
58 47 47 50 56 70 88 96 98 99 99 99 89 74 67 66 68 78 86 90 90 89 82 68 62 54 49 42 38 36 35 32 31 28 25 20 19 13 10 10 11 12 12 12
90 85 83 85 87 89 93 96 97 92 79 69 64 63 67 77 88 90 92 90 83 72 65 58 54 47 43 39 38 38 35 33 30 26 21 18 11 11 10 11 12 11 9 14
66 73 73 75 75 74 70 66 60 58 62 65 73 84 89 91 95 93 85 76 69 64 60 54 49 44 42 42 40 36 34 31 26 21 17 10 11 11 11 12 10 6 12 63
58 54 54 55 55 54 55 63 73 81 85 88 89 91 96 96 88 81 77 74 68 62 55 49 47 46 44 41 38 36 33 26 20 16 9 12 12 11 11 10 6 10 56 46
70 71 69 70 77 84 88 86 82 83 86 89 94 93 87 84 83 78 70 64 59 56 54 52 50 46 42 40 38 32 25 19 14 9 13 13 11 12 10 5 8 48 52 55
81 82 86 84 76 75 75 77 81 86 88 90 88 85 82 75 70 65 63 65 63 59 55 54 49 45 43 39 32 24 17 10 8 14 13 13 13 9 6 6 38 57 47 70

GFSNGP_500_rhum_030.txt.gz
RH
91 100 97 94 99 100 99 99 100 100 51 41 35 46 20 18 21 76 68 68 62 72 68 63 54 51 53 68 61 59 55 49 44 47 56 53 40 28 36 57 84 95 94 93
99 99 98 98 98 98 100 100 99 100 91 25 22 23 15 14 51 88 86 86 89 91 72 62 57 65 73 68 61 51 46 51 56 60 53 32 25 37 75 96 95 89 94 68
96 98 98 99 89 96 76 99 100 100 74 66 19 36 39 29 44 97 96 87 93 100 84 75 78 73 61 53 52 54 57 63 60 46 26 30 53 88 100 89 90 91 62 87
98 98 98 99 81 63 67 51 80 90 88 90 99 92 95 88 87 95 91 85 93 85 75 69 63 63 65 65 63 61 62 52 36 32 45 71 98 99 92 96 76 68 87 70
100 99 99 98 95 89 82 62 72 90 99 99 92 79 95 85 84 84 78 84 77 73 75 79 77 71 67 66 65 62 57 48 52 64 83 100 97 98 90 64 86 78 64 75
86 84 74 92 95 96 98 97 100 96 97 88 100 91 77 73 74 81 87 94 96 98 98 87 75 71 74 73 74 71 68 63 74 99 97 98 99 71 87 86 62 69 77 76
71 78 86 76 70 82 78 87 95 98 98 99 99 98 86 93 95 88 94 98 96 90 81 78 75 75 82 91 82 64 74 100 98 98 98 83 85 90 63 66 73 77 62 42
64 74 81 77 73 66 70 67 65 76 88 95 98 77 88 98 96 96 86 75 69 70 76 81 90 98 81 64 87 95 93 97 96 85 85 83 61 65 74 73 72 54 42 37
67 70 81 78 94 94 83 87 79 73 68 66 68 73 91 98 97 91 85 79 85 88 92 79 71 85 92 92 97 100 92 75 68 69 57 64 79 70 74 66 52 47 43 43
72 82 86 79 79 90 94 96 94 95 90 87 85 99 100 100 100 94 90 87 84 84 89 96 94 94 98 92 61 40 51 70 62 63 83 67 72 76 62 56 54 46 45 35
69 80 79 83 91 98 100 100 98 98 98 98 99 100 100 100 100 99 99 100 98 98 96 95 81 48 29 32 51 72 67 62 84 74 64 76 73 62 63 56 50 44 27 19
87 88 91 86 94 94 99 100 100 100 98 98 99 100 100 100 99 98 97 98 94 67 32 27 29 33 48 68 70 58 83 86 62 70 79 72 67 69 57 52 36 24 20 14
94 91 93 94 97 97 97 100 100 98 98 100 100 99 97 86 60 50 46 42 32 31 32 32 38 51 66 56 72 92 72 61 77 79 73 74 73 60 50 34 27 22 17 17
94 85 86 84 89 97 99 100 99 98 100 90 74 67 62 61 55 48 40 31 32 33 32 38 51 61 77 90 87 63 65 77 78 76 78 72 60 43 32 30 23 21 21 20
91 97 91 84 93 99 98 100 97 100 91 72 62 57 50 45 43 43 41 40 37 35 41 55 74 86 88 78 65 70 79 82 81 80 69 53 39 35 31 25 24 24 22 18
95 99 97 90 96 100 100 100 98 93 66 58 57 54 50 48 49 46 42 37 35 38 58 81 85 82 80 69 74 82 84 84 78 61 48 41 37 30 26 27 27 24 19 15
95 96 99 99 100 100 99 98 94 74 74 80 68 55 57 53 37 33 35 42 64 83 83 83 89 75 71 77 83 85 86 71 55 46 42 35 30 28 29 27 23 18 15 8
98 96 98 100 100 100 100 100 96 90 72 63 68 56 34 36 47 62 83 91 90 91 92 74 68 66 78 86 89 84 62 52 46 40 34 30 30 30 27 22 16 14 8 7
99 98 98 98 93 84 77 72 70 76 76 60 41 49 62 78 92 95 98 100 89 73 63 60 75 85 90 89 71 58 50 45 39 34 31 32 32 29 24 17 13 8 6 8
96 81 78 81 85 87 84 82 86 75 52 59 79 91 96 96 96 99 92 76 66 60 69 82 89 92 78 64 56 50 44 37 35 33 33 32 29 24 16 10 5 7 9 9
98 97 94 71 63 71 84 76 61 56 72 92 96 98 99 97 95 81 70 68 69 79 86 91 84 68 62 56 48 41 37 36 36 35 33 30 25 19 10 5 7 9 10 9
91 91 84 76 72 67 58 55 68 91 100 100 100 100 97 84 73 68 72 83 84 88 86 74 69 61 54 45 41 39 39 39 37 35 32 26 18 12 6 6 9 10 9 8
78 84 89 89 85 83 92 96 100 100 100 100 98 83 73 69 70 85 91 88 86 79 75 71 59 51 48 45 43 42 42 40 37 34 26 19 13 7 6 9 10 10 6 16
89 93 96 100 100 100 100 100 100 95 84 73 66 68 74 89 94 94 90 83 78 77 65 55 53 51 49 47 45 44 41 38 34 27 20 13 7 5 8 10 9 6 12 55
70 63 58 61 64 67 67 65 63 62 65 75 89 94 94 92 92 87 82 78 70 61 56 55 53 51 48 46 43 40 39 33 25 21 14 7 6 8 9 9 5 10 53 54
74 70 69 66 63 65 70 76 84 94 99 92 90 90 90 88 86 83 74 70 64 60 59 56 52 48 48 46 43 39 31 23 18 12 7 8 9 10 8 5 8 50 52 67
85 79 78 80 88 88 89 96 97 88 86 86 87 88 87 87 82 77 76 70 66 64 59 52 49 50 49 45 36 27 20 16 11 7 10 12 12 10 5 7 44 49 63 70

GFSNGP_500_rhum_033.txt.gz
RH
99 94 99 99 99 100 100 100 90 98 90 76 26 31 51 70 79 64 58 52 30 24 32 31 33 37 54 65 68 66 66 59 69 86 42 48 50 58 68 59 35 44 75 91
99 97 98 99 99 72 76 92 76 20 25 22 29 52 97 74 40 46 67 73 59 51 38 33 38 52 75 72 72 69 61 82 61 50 53 56 74 72 49 32 50 83 94 92
97 97 100 100 72 61 71 49 60 25 31 49 79 53 58 31 54 67 94 81 72 64 62 47 55 77 74 69 71 76 71 60 56 59 77 82 63 30 36 64 84 96 94 85
94 98 96 100 99 70 83 46 16 23 35 54 48 32 20 24 69 93 98 75 75 80 75 69 75 79 78 82 77 68 60 64 80 87 70 41 36 56 70 91 96 93 79 83
93 96 98 99 99 80 84 97 93 96 30 20 25 22 15 27 49 80 98 90 94 98 90 98 100 91 77 69 65 68 77 82 68 48 51 66 71 86 98 92 90 82 78 65
74 65 69 84 99 98 95 93 100 99 99 95 99 99 77 86 86 97 98 97 98 98 97 96 96 96 93 84 78 82 76 70 74 76 70 82 96 93 95 84 80 63 74 72
67 70 76 73 88 76 96 98 98 94 92 90 90 94 97 97 97 94 91 94 97 95 92 96 98 96 87 82 85 90 92 89 71 84 93 95 97 82 74 61 73 75 70 71
54 67 77 75 73 79 67 68 89 97 100 98 98 99 98 99 99 98 98 98 96 90 90 87 83 78 79 84 96 86 77 90 93 97 96 70 68 63 69 80 68 71 68 63
58 70 68 66 73 74 72 69 74 83 93 100 100 96 100 96 95 88 86 84 81 81 78 78 86 94 86 82 90 96 99 99 73 49 66 68 66 81 72 66 74 67 68 65
49 77 80 78 84 81 79 80 80 77 76 86 95 97 94 94 95 90 87 90 93 95 92 85 90 97 99 98 98 76 38 40 65 69 64 79 81 62 70 74 72 74 62 45
56 76 83 90 99 99 98 90 85 89 85 81 75 73 74 74 79 85 92 97 96 95 96 98 99 95 64 34 31 38 51 65 62 72 84 66 66 79 78 78 74 55 40 34
64 82 89 98 98 98 96 98 99 96 92 91 91 92 88 88 92 95 97 97 98 97 84 49 33 32 30 30 37 52 58 69 86 76 62 74 83 82 79 65 46 39 33 27
86 93 95 100 99 99 98 95 98 99 100 98 98 97 96 99 99 87 59 56 54 42 32 32 33 33 35 42 58 72 85 82 69 67 79 86 86 76 56 46 39 31 27 25
82 92 95 98 97 97 97 92 99 97 96 98 98 96 92 93 85 70 47 38 35 34 38 37 36 38 47 68 84 85 82 70 71 81 86 82 67 50 43 36 30 29 28 25
79 84 90 98 95 98 98 99 98 95 100 96 96 94 75 62 49 47 46 46 45 43 39 36 40 56 78 84 86 80 68 71 81 84 78 59 48 41 33 28 26 25 24 23
94 97 97 99 87 99 98 98 100 98 98 95 84 70 67 61 57 56 52 38 33 35 44 70 84 83 87 86 68 67 78 84 82 69 53 46 38 32 30 28 24 23 23 18
96 98 99 98 97 98 98 98 100 98 94 85 82 79 76 62 63 36 36 54 68 81 88 89 91 91 74 70 75 82 82 76 59 52 42 35 33 30 27 22 22 24 20 15
99 98 100 98 98 98 99 98 99 98 96 91 93 70 73 56 39 58 78 87 89 92 94 87 76 74 77 83 83 79 64 57 48 40 36 33 29 26 23 24 24 20 14 6
99 98 97 97 99 99 99 98 96 94 88 78 82 79 54 54 77 87 92 96 95 85 75 72 72 85 87 81 69 61 55 45 40 37 33 30 26 25 24 23 19 12 6 6
99 100 98 98 98 98 97 92 90 87 83 82 72 54 66 86 94 97 98 91 77 71 69 79 87 86 75 66 60 51 45 43 38 32 30 27 25 24 21 16 9 6 6 8
100 100 98 90 86 88 89 86 82 84 75 69 61 76 98 100 99 97 88 73 72 73 87 87 82 73 70 58 49 46 42 38 33 29 27 25 23 20 14 6 5 6 8 8
93 98 100 99 96 94 86 83 85 84 79 80 96 100 100 100 96 78 72 73 86 93 88 80 75 68 55 50 46 43 38 32 28 26 24 24 19 14 9 4 7 8 9 7
81 80 84 88 88 89 92 92 92 98 100 99 100 99 98 84 72 70 87 98 95 88 80 75 64 56 53 50 42 35 31 29 29 26 24 18 13 9 5 8 8 9 6 24
84 88 86 89 97 100 100 100 100 100 98 94 83 74 70 67 85 100 99 94 87 81 73 66 61 59 53 42 35 31 30 30 28 25 19 15 8 5 8 9 8 6 22 50
75 85 85 83 83 83 85 82 76 72 70 70 72 78 91 100 100 95 90 86 81 73 72 69 67 57 46 40 36 31 33 30 26 20 16 9 6 8 9 8 5 18 52 61
68 76 76 72 69 66 67 68 70 78 81 86 96 100 100 98 94 90 85 79 76 78 76 76 68 60 52 45 38 36 32 27 21 15 10 5 8 9 9 5 15 53 60 65
70 75 83 89 86 80 79 85 92 95 98 100 100 99 96 94 90 85 82 81 86 86 79 68 65 59 50 43 39 34 29 21 15 8 5 8 9 8 5 12 52 55 70 75

GFSNGP_500_rhum_036.txt.gz
RH
93 92 100 98 79 94 98 77 86 36 25 44 78 65 33 51 41 43 56 62 55 48 51 46 39 31 26 26 28 33 46 74 81 81 80 78 79 98 83 54 69 80 84 68
95 98 98 95 87 67 70 43 36 36 35 32 36 47 47 42 42 55 68 78 63 54 43 35 30 26 31 31 38 57 75 82 87 91 86 85 100 60 60 71 89 95 48 51
88 96 95 89 78 65 74 19 24 37 56 55 60 78 93 92 84 78 76 76 55 39 30 33 37 40 39 44 50 62 88 93 95 88 100 86 62 68 80 94 75 38 80 98
96 98 99 91 70 69 82 29 34 37 39 48 89 99 97 99 94 85 74 74 71 36 38 50 45 40 42 53 76 91 86 89 98 94 77 75 81 94 82 41 72 91 100 97
86 94 100 95 89 96 98 96 62 34 43 33 52 52 96 100 97 97 100 95 84 79 73 74 72 66 76 90 88 92 98 93 88 91 96 99 75 54 75 83 100 98 96 78
86 94 76 94 100 100 98 98 98 93 80 60 41 25 59 91 97 98 93 91 100 100 99 100 99 94 93 92 90 91 93 98 98 96 81 81 85 83 100 99 98 75 68 70
69 73 76 74 82 76 95 98 98 98 98 98 91 50 36 49 93 98 98 98 100 98 96 99 99 94 92 95 97 97 96 96 98 98 88 83 98 98 98 72 67 68 79 72
58 68 77 78 77 81 73 90 100 100 96 95 99 100 97 97 94 92 87 93 97 97 98 98 98 98 96 94 96 97 100 96 86 84 93 96 86 62 67 69 81 76 73 77
61 74 78 80 78 79 67 56 70 79 98 100 98 98 97 95 96 97 98 97 94 92 89 87 90 91 90 93 91 86 83 88 91 74 46 49 76 68 78 82 69 72 78 76
51 65 73 80 87 86 89 78 74 82 76 82 95 99 98 100 99 94 92 88 84 82 81 80 79 81 82 84 88 85 60 34 34 57 76 66 70 86 74 66 71 77 71 56
57 54 82 82 88 82 88 93 91 91 87 87 92 97 95 91 95 95 95 80 77 77 80 84 88 91 83 49 29 30 36 49 65 63 68 87 82 68 66 73 74 64 49 40
51 53 89 92 94 98 95 98 99 99 91 93 91 90 94 95 97 98 97 94 92 91 85 62 36 31 32 34 36 40 50 59 70 86 83 76 67 70 77 71 57 45 35 27
42 54 79 93 98 98 98 94 96 99 97 97 97 95 94 100 100 99 67 60 60 55 46 37 35 38 38 38 45 60 75 87 84 81 70 66 76 76 65 51 42 30 26 23
50 75 89 91 90 90 96 99 93 100 94 100 100 99 98 92 88 75 53 43 41 42 44 44 42 41 45 60 80 88 86 86 75 65 74 76 69 56 47 36 33 30 24 20
87 94 98 96 89 94 97 97 93 95 96 100 97 95 82 75 63 54 54 54 49 39 35 37 44 66 87 88 87 88 76 66 74 78 72 60 52 42 34 30 25 22 16 14
87 87 98 94 90 95 91 94 91 96 98 100 95 83 84 79 72 63 57 38 37 56 72 85 91 93 93 88 72 62 71 79 76 65 56 49 39 33 28 24 17 14 13 12
84 97 96 94 96 97 93 94 93 100 100 98 90 87 87 87 71 66 42 56 78 85 86 88 89 84 71 61 64 76 76 70 62 56 43 38 33 28 21 16 16 16 15 13
96 98 92 93 100 100 100 99 100 100 99 92 88 89 86 76 72 53 70 80 81 86 90 86 73 66 66 76 78 73 67 62 50 42 38 32 24 20 19 17 16 15 11 6
98 100 99 100 99 98 99 99 100 99 97 97 93 87 86 69 60 76 84 88 92 91 81 69 66 73 81 78 73 71 58 47 45 38 29 24 21 19 18 15 13 10 5 5
99 99 98 97 97 98 98 98 97 97 97 97 94 92 88 73 86 92 93 90 89 79 68 68 84 85 80 75 70 55 50 48 39 30 25 22 21 20 16 13 9 4 5 7
92 97 98 98 98 97 98 98 97 97 95 89 84 82 80 88 98 99 97 93 76 70 80 93 90 82 76 67 58 55 52 41 36 31 24 22 19 18 16 10 5 5 7 7
90 92 96 100 100 98 98 98 99 97 91 90 94 93 96 100 100 99 85 74 76 94 98 93 83 76 67 62 61 60 52 47 38 25 22 21 18 17 15 8 5 7 7 6
95 93 93 97 100 100 100 98 94 95 96 97 100 100 100 98 94 79 78 92 99 98 94 84 78 70 66 67 68 58 47 36 27 25 24 20 19 16 8 5 7 8 5 20
82 89 90 88 88 94 98 98 100 100 100 99 97 89 78 72 76 91 100 100 98 92 86 79 74 72 73 68 54 47 39 34 30 28 22 23 19 11 6 8 8 5 21 53
83 76 79 88 92 98 99 99 96 92 83 77 73 77 86 97 100 100 100 98 92 86 83 80 78 78 66 55 49 46 41 35 31 25 27 18 13 6 7 6 5 21 57 56
76 82 77 78 80 81 76 72 70 71 72 75 81 87 96 100 100 99 96 94 90 89 85 81 75 65 60 56 55 48 41 34 30 28 19 12 7 5 4 4 19 60 63 61
69 81 84 83 82 86 87 83 83 83 87 94 99 100 100 100 100 98 99 96 95 90 87 80 70 62 62 67 60 47 40 33 29 20 11 7 5 3 4 22 58 67 71 83

GFSNGP_500_rhum_039.txt.gz
RH
60 76 94 99 99 91 95 82 33 22 32 41 37 32 34 68 74 84 53 50 61 75 80 66 63 57 48 41 38 36 35 33 33 37 41 50 73 90 91 92 97 89 98 62
96 90 98 98 89 86 83 44 19 22 39 66 77 62 44 40 37 60 50 48 55 80 76 65 53 39 36 36 36 37 35 33 37 39 42 65 91 98 94 84 100 97 67 78
98 100 88 90 83 89 85 51 40 23 28 41 83 94 100 89 63 41 38 47 56 77 72 59 51 38 32 33 36 36 37 39 41 46 71 93 99 94 88 100 91 82 97 92
98 94 90 94 100 80 75 83 69 36 52 47 78 98 100 96 93 81 81 72 74 68 59 48 43 38 35 36 46 41 41 43 55 91 98 94 82 100 95 81 95 98 91 97
92 93 92 96 96 81 85 89 95 88 82 32 56 97 99 90 92 82 74 70 59 42 37 40 43 45 46 51 50 48 57 60 84 95 94 98 94 83 95 97 96 98 100 100
79 71 77 80 81 67 76 87 89 94 100 42 67 64 99 95 78 81 83 96 74 42 54 69 64 56 53 55 58 73 98 98 82 83 86 88 94 96 96 96 100 100 96 69
72 78 76 68 65 66 70 80 88 96 90 98 97 80 98 98 98 99 99 99 99 99 99 100 100 99 100 99 93 79 64 79 89 93 97 97 94 96 99 100 88 69 69 75
54 59 76 68 75 80 77 72 73 89 97 96 98 100 96 98 98 95 93 94 92 95 96 93 91 89 89 88 91 95 96 98 98 96 93 98 100 96 66 67 71 71 83 75
55 67 67 65 68 71 80 89 86 80 85 98 99 98 99 97 98 99 96 97 98 98 97 98 97 98 98 98 98 100 100 91 93 100 100 70 52 69 74 68 81 78 68 69
53 53 60 71 69 77 80 92 92 89 85 82 94 98 98 100 100 96 98 96 95 96 95 91 93 95 96 95 98 100 100 94 64 43 51 67 71 67 80 80 71 65 71 65
58 56 54 67 68 79 79 84 98 98 97 90 92 88 88 92 99 99 97 95 97 97 97 99 100 100 100 94 68 42 38 42 47 54 61 70 85 83 75 64 68 68 54 43
41 41 53 70 71 73 80 87 90 94 97 98 96 99 99 99 98 98 99 100 100 100 97 77 52 38 36 38 40 41 42 48 60 74 85 85 76 64 69 69 57 46 34 26
37 36 49 81 89 88 88 95 94 92 91 91 100 100 99 99 100 100 80 72 79 75 53 40 40 44 44 42 41 46 61 79 85 84 77 59 66 72 61 51 39 30 28 23
53 49 54 87 96 98 100 97 93 92 100 88 89 98 98 97 94 89 71 50 47 50 48 41 36 36 37 45 76 89 87 87 75 59 65 72 65 55 44 34 32 27 19 16
57 56 64 84 94 95 96 98 96 95 98 93 95 98 93 87 73 66 61 58 48 36 35 48 62 74 86 91 93 89 72 61 67 73 70 60 50 39 36 30 23 20 16 13
71 84 90 96 99 93 92 92 93 92 100 98 100 98 92 89 89 74 67 56 42 52 70 78 83 86 88 87 74 64 67 75 74 65 58 45 41 37 29 21 16 13 11 14
71 85 91 96 95 95 97 97 98 97 95 98 100 99 97 86 86 76 71 56 62 74 78 82 86 87 79 67 63 75 75 71 66 54 47 45 40 33 25 16 16 14 14 12
86 84 92 99 99 100 97 98 97 94 97 98 98 96 97 96 85 81 63 69 76 86 90 89 86 74 64 71 80 77 72 66 54 50 50 46 41 28 19 16 13 15 17 18
99 98 96 98 99 99 100 99 97 99 100 100 99 98 97 94 90 77 76 85 93 93 90 84 72 67 82 84 81 74 66 57 56 57 53 42 29 23 18 13 15 15 16 11
98 100 100 100 99 99 100 99 99 100 99 99 98 97 92 89 85 84 92 98 99 98 86 70 73 87 88 83 76 68 62 63 61 52 39 29 24 19 15 16 14 14 9 6
99 99 99 98 98 98 98 98 99 98 98 94 91 87 86 86 88 93 100 100 99 84 70 81 92 91 84 78 70 68 69 61 49 38 29 24 19 15 16 14 14 8 6 8
99 100 99 100 100 100 99 98 98 96 96 97 97 93 94 97 100 100 100 98 85 77 93 95 92 83 80 74 73 70 59 48 42 32 30 27 18 16 15 14 6 5 7 7
96 97 97 97 99 100 100 100 100 100 100 100 100 100 100 100 100 99 92 83 85 99 98 89 83 80 76 74 69 55 49 44 40 37 32 19 15 14 14 5 4 4 6 10
92 92 93 97 96 95 95 94 93 96 100 100 99 99 94 81 75 78 82 97 100 100 92 83 80 80 76 70 58 51 51 48 43 36 26 19 15 12 4 3 3 5 19 55
90 92 89 87 84 87 91 98 100 98 96 92 78 71 70 73 89 95 100 100 100 94 86 84 84 81 79 76 70 62 55 50 41 32 23 14 12 4 3 3 6 39 59 52
72 83 90 90 89 81 80 82 85 84 78 74 73 74 78 85 93 100 100 100 99 94 90 91 89 89 89 87 77 62 56 46 36 29 17 13 5 3 3 16 49 54 49 57
67 71 80 76 70 80 89 87 84 83 80 80 84 88 94 100 100 100 100 100 99 97 96 98 98 96 94 87 71 63 53 43 34 22 15 7 4 6 24 47 53 62 76 83

GFSNGP_500_rhum_042.txt.gz
RH
37 22 26 53 68 67 83 89 75 63 29 30 34 50 82 91 91 50 46 57 84 86 56 61 49 75 100 93 72 64 55 47 44 44 45 44 48 49 53 70 73 93 97 100
27 38 70 83 82 89 100 100 96 77 74 44 61 69 95 100 93 63 56 57 71 63 63 66 62 100 98 76 64 57 50 46 45 43 53 54 68 60 58 52 93 94 99 98
67 79 75 88 97 98 100 96 90 91 87 54 49 94 99 90 92 53 40 40 46 58 59 75 99 99 96 58 52 48 46 48 46 54 73 62 52 51 57 96 96 99 95 100
90 84 98 100 95 94 88 78 78 90 80 79 45 70 90 81 81 52 40 43 51 56 86 96 97 94 48 46 44 44 56 50 46 49 50 48 45 57 97 97 96 100 99 98
90 98 95 99 94 86 64 76 72 79 73 75 89 99 80 66 76 56 55 62 72 80 92 96 85 41 36 35 37 39 48 56 55 51 45 81 76 92 61 96 100 97 100 97
89 85 84 70 77 79 65 71 65 68 76 82 97 97 69 61 58 69 71 68 67 62 46 46 46 44 43 52 52 55 55 52 54 47 100 99 98 99 99 98 99 98 91 97
73 75 66 66 78 70 68 64 59 64 81 95 90 94 96 87 80 79 64 48 41 38 37 39 57 55 47 55 67 90 82 98 98 99 92 89 98 99 98 96 95 96 74 72
56 59 64 67 64 71 84 86 67 63 87 92 86 81 89 96 96 100 98 93 77 85 93 96 98 97 96 98 97 96 98 98 98 96 89 98 91 91 95 83 65 73 74 83
58 74 66 60 68 76 81 88 87 76 80 89 97 96 86 94 95 88 79 82 87 96 76 76 99 100 95 91 86 84 80 82 87 93 90 92 79 53 63 72 69 84 78 64
61 55 50 54 66 79 85 87 88 86 86 86 96 99 96 97 96 89 88 87 95 96 97 96 96 95 93 95 96 96 94 93 88 62 41 46 58 67 71 83 81 64 63 62
55 59 56 56 62 76 85 82 82 80 87 91 93 89 98 98 99 97 94 92 91 90 91 91 89 91 92 92 91 75 49 40 45 51 56 65 77 85 81 64 64 62 52 39
56 51 42 48 60 76 90 89 91 90 87 97 98 98 96 98 98 98 98 98 98 98 91 77 60 47 40 40 43 46 46 48 54 67 83 87 78 61 64 65 55 42 34 30
52 38 39 44 53 83 93 91 98 96 95 92 97 100 100 98 100 99 84 82 87 86 52 43 46 47 44 40 40 48 70 87 88 88 75 59 65 68 61 50 39 37 32 25
41 36 45 44 51 84 98 96 96 98 92 89 94 95 100 100 98 92 65 53 52 53 48 39 38 47 60 67 74 82 85 84 71 57 64 67 63 56 46 42 41 37 30 23
36 49 53 46 57 82 96 93 98 99 95 93 85 93 100 97 83 78 68 61 54 42 40 51 60 65 69 73 78 82 73 58 64 71 69 65 54 47 46 46 41 30 21 11
64 72 70 73 80 92 97 87 97 100 96 99 100 100 97 91 85 86 75 69 63 54 57 62 68 74 78 81 78 62 60 74 74 71 65 54 51 51 47 37 26 14 12 11
75 72 71 79 89 94 93 95 96 97 98 100 100 100 100 96 94 92 86 78 68 66 68 75 81 86 86 75 60 75 81 78 74 64 56 57 54 46 35 24 16 15 14 11
77 67 72 84 88 94 94 98 98 98 98 99 100 100 100 97 96 98 94 81 79 82 85 89 91 86 72 64 80 83 80 76 66 61 61 53 43 36 24 20 19 16 12 9
90 90 94 98 98 98 96 99 99 97 95 99 100 100 100 99 98 98 97 96 95 95 99 100 94 77 68 84 87 83 77 70 66 62 50 40 33 28 26 21 15 12 9 5
97 99 99 99 98 98 98 98 98 99 98 98 99 99 99 99 99 98 98 99 98 100 100 100 87 72 90 90 85 79 71 68 61 46 40 36 31 29 22 16 12 9 4 2
99 99 99 99 99 99 99 99 100 100 100 100 100 100 100 100 98 98 100 100 100 100 100 94 83 95 93 86 82 73 68 62 51 48 46 38 30 24 19 14 9 3 2 3
98 99 100 100 99 99 99 99 100 100 100 100 100 100 100 100 99 100 100 100 100 97 90 89 97 95 87 83 77 70 69 64 61 60 50 35 31 22 15 12 4 2 3 5
97 93 92 94 96 98 100 100 100 100 100 100 100 98 97 98 97 96 98 90 81 80 90 97 96 90 83 80 75 75 76 72 69 59 40 37 28 16 13 7 3 4 17 36
100 100 100 98 98 100 100 100 100 98 98 100 100 100 100 100 92 80 77 82 93 100 98 98 95 86 82 80 80 82 79 73 67 49 45 35 22 14 12 4 13 32 33 37
90 98 100 100 100 95 94 94 97 100 100 100 100 100 96 80 77 75 78 92 98 99 97 99 95 86 85 86 88 82 74 67 58 51 44 29 18 15 7 10 31 29 26 27
78 78 78 85 91 99 99 97 95 91 90 93 93 89 82 78 78 82 88 98 100 100 100 100 97 93 92 92 84 77 65 62 56 50 36 24 16 12 5 25 37 45 53 61
68 62 62 65 68 72 85 88 82 91 93 89 86 85 85 84 90 97 100 100 100 100 100 100 100 95 89 86 82 75 71 64 53 40 29 19 16 7 6 38 46 55 64 67

GFSNGP_500_rhum_045.txt.gz
RH
25 12 20 26 38 73 75 76 58 68 72 52 63 55 57 64 98 85 97 56 36 41 59 74 87 82 69 53 41 93 62 91 86 77 66 56 51 55 70 80 68 58 47 64
13 34 28 54 71 83 78 72 76 75 65 57 68 74 66 35 72 85 52 45 46 74 71 68 50 43 43 56 88 75 90 91 81 60 52 49 59 80 96 55 52 41 54 100
41 28 76 94 95 90 85 79 86 69 66 62 62 69 58 32 37 39 37 38 33 40 43 50 44 57 57 84 88 92 93 80 63 52 48 50 96 98 66 99 100 65 98 98
27 86 100 99 88 92 90 79 76 61 62 55 47 51 36 40 42 37 40 45 47 53 67 88 93 89 95 98 92 84 69 61 55 51 57 73 58 69 97 78 60 79 95 97
78 100 99 98 90 86 72 63 60 63 68 58 61 54 50 49 58 64 62 70 83 96 97 94 96 99 93 76 59 54 52 58 97 61 51 73 97 99 54 83 99 99 98 100
100 97 91 85 78 69 63 57 53 72 69 67 72 72 72 82 50 61 74 83 73 94 96 74 55 61 62 58 53 53 56 95 75 81 100 98 68 54 86 99 93 98 98 100
98 92 72 69 67 74 74 61 53 56 90 68 79 90 92 86 89 65 49 46 52 53 53 56 60 60 61 85 81 73 97 85 97 97 87 99 99 98 98 96 97 98 99 81
93 66 62 67 77 76 80 73 61 64 69 87 79 90 89 81 73 91 87 58 79 96 95 96 97 84 76 96 96 90 99 97 96 93 95 97 99 100 98 94 76 55 58 64
72 62 73 72 80 74 87 83 75 77 77 91 100 83 86 85 76 77 78 90 99 99 99 99 98 98 99 98 98 99 98 99 100 100 100 99 84 67 44 43 54 58 70 75
62 78 62 60 62 83 92 84 94 91 82 79 97 96 91 94 94 88 84 91 90 88 91 95 97 96 91 94 97 96 93 86 82 79 54 35 37 39 42 51 69 72 59 60
57 60 64 53 58 79 92 88 92 95 93 88 87 92 96 95 98 100 93 89 90 93 85 84 82 80 79 79 73 56 44 37 37 39 40 42 49 68 78 68 59 62 62 52
60 55 54 39 42 58 94 96 94 94 91 92 96 96 98 96 94 90 89 91 91 89 81 65 57 53 49 40 38 40 40 41 49 69 83 85 76 58 59 67 64 56 46 41
74 67 55 41 43 46 66 100 100 98 97 95 98 95 95 100 99 98 96 87 83 73 68 51 45 46 40 39 48 62 72 77 79 76 67 54 58 65 65 60 51 43 42 40
82 71 47 37 44 45 46 86 100 97 97 97 94 92 97 100 99 98 85 66 59 56 48 38 39 52 59 63 69 75 78 79 70 56 60 70 69 65 57 47 44 43 36 28
65 53 42 42 51 44 48 76 99 99 99 97 96 86 93 100 98 92 92 66 63 57 52 54 59 61 66 74 78 80 76 63 60 72 72 69 63 52 47 45 37 31 26 23
47 41 46 62 54 58 76 90 100 100 100 100 100 96 99 98 94 95 94 87 83 74 64 64 67 70 76 80 82 74 61 68 77 76 71 62 52 48 39 33 31 29 22 15
32 44 52 57 61 68 84 91 100 100 100 99 96 99 100 99 99 98 97 96 92 81 79 78 82 84 87 85 76 64 74 82 79 73 63 53 47 38 39 38 32 26 16 8
54 56 62 66 66 76 89 94 100 100 100 99 98 100 100 99 99 99 98 98 98 93 92 94 95 96 94 90 70 74 86 83 73 64 56 49 44 49 45 36 28 18 9 6
80 77 80 79 79 90 94 98 99 98 100 100 100 100 100 100 98 99 100 100 97 95 94 96 94 96 99 91 79 88 87 75 66 60 58 53 58 54 41 31 21 12 8 4
98 92 82 94 100 100 98 100 95 98 98 99 100 100 100 100 100 100 96 93 93 97 96 95 95 100 98 86 91 90 79 71 65 64 66 69 62 49 38 25 15 10 5 6
100 100 100 100 99 100 100 99 100 99 98 100 100 100 100 99 96 94 96 99 98 94 90 92 99 95 87 92 93 83 74 72 70 72 73 67 54 43 30 18 11 9 7 19
100 100 100 100 100 100 100 100 100 100 100 100 100 98 96 98 99 97 96 96 91 88 92 89 82 86 94 95 90 79 76 77 79 76 63 53 48 36 21 14 12 7 17 20
99 100 100 100 99 99 99 100 100 99 98 99 100 98 96 100 99 96 94 94 93 82 78 86 97 98 97 98 89 82 82 84 80 69 60 54 41 26 18 16 12 7 23 17
100 98 98 97 96 96 98 100 100 100 99 100 99 97 100 100 100 100 100 89 81 79 86 98 100 100 100 100 94 90 88 83 78 71 64 47 32 26 19 17 10 8 26 26
100 100 100 100 100 97 97 97 98 100 100 100 100 100 100 100 100 100 94 85 80 83 92 100 100 100 100 100 99 96 87 81 79 73 59 41 31 25 18 13 7 15 37 43
74 75 84 93 91 88 92 96 99 100 100 100 96 94 98 95 95 92 88 84 86 95 100 100 100 100 100 100 100 96 85 83 80 69 51 37 30 18 14 10 5 28 49 56
60 62 65 70 70 75 79 76 71 71 80 94 96 100 98 97 99 97 94 94 98 100 100 100 100 100 100 100 100 94 88 85 73 57 42 32 23 14 11 6 6 43 60 68

GFSNGP_500_rhum_048.txt.gz
RH
45 30 25 14 23 25 41 72 61 68 58 46 40 32 42 35 23 20 24 25 25 32 61 56 40 58 59 61 65 65 78 74 87 89 60 46 56 67 68 71 64 58 52 57
27 25 13 33 28 57 76 70 66 62 55 50 39 34 34 21 26 27 34 36 30 30 48 75 84 88 88 90 93 87 79 86 95 78 49 39 64 72 73 63 55 58 66 78
23 21 31 35 75 84 78 76 77 65 54 50 51 44 30 33 39 36 48 54 53 51 38 35 37 42 42 52 71 89 100 99 85 60 66 76 75 71 56 55 67 82 68 64
16 33 43 82 87 90 91 79 66 56 57 57 62 52 43 70 40 46 65 71 74 75 86 73 55 44 65 92 99 100 99 100 95 92 90 85 65 58 88 95 98 70 87 98
37 33 87 87 100 96 76 61 61 58 77 68 62 54 58 66 52 52 55 66 77 86 89 82 89 98 99 100 100 100 100 98 96 91 94 69 88 96 97 90 80 99 83 53
32 82 94 99 84 79 73 67 60 54 52 72 72 58 69 68 68 73 43 42 52 81 71 79 88 94 94 97 96 95 90 86 82 99 98 99 78 70 91 95 80 60 91 93
90 96 97 93 79 86 74 70 63 70 60 68 79 72 59 62 64 66 57 46 70 98 80 69 68 87 100 76 71 91 100 99 99 89 82 93 100 99 97 99 97 99 96 100
97 100 92 75 81 82 74 80 69 68 67 64 87 86 80 64 73 72 75 82 91 91 83 94 75 94 98 96 97 98 97 96 95 97 99 95 87 94 96 94 95 86 61 52
100 86 70 83 80 81 87 85 84 76 78 82 78 78 76 85 85 86 84 86 80 74 77 93 97 96 89 83 91 95 98 98 89 89 90 94 94 95 78 48 43 50 61 71
100 70 84 74 74 79 80 83 85 82 86 87 91 82 75 84 88 100 99 98 93 87 96 100 90 87 95 98 96 92 89 90 90 86 75 56 42 42 47 62 74 65 54 50
96 73 60 66 59 52 72 82 89 92 93 91 87 99 88 85 91 96 98 97 96 95 94 91 88 83 76 67 58 47 42 43 44 44 44 49 59 66 63 52 51 57 59 55
90 61 54 59 44 41 43 68 90 98 92 99 93 88 94 92 87 88 94 94 92 85 65 63 62 52 45 43 42 40 40 44 50 56 61 63 58 52 55 59 60 55 46 41
92 73 58 55 48 40 45 49 83 94 88 98 100 96 94 95 86 88 98 94 86 78 60 50 48 41 36 38 39 46 54 62 66 66 58 52 57 62 63 59 48 43 39 32
99 85 68 57 52 42 47 47 61 88 86 91 96 93 91 98 100 95 95 81 70 69 56 50 45 45 42 47 54 61 64 64 60 53 57 63 64 62 55 45 43 37 35 34
93 88 79 66 50 40 50 50 66 82 86 92 95 93 88 94 100 100 95 92 74 83 81 70 62 59 62 65 68 70 67 60 58 62 68 68 64 56 49 48 40 41 40 33
86 77 66 55 43 49 57 62 77 89 90 97 99 95 94 92 99 97 94 96 95 92 89 83 77 77 80 80 81 77 75 64 66 72 74 68 60 53 52 46 46 46 37 26
80 58 50 45 40 52 61 66 81 90 97 97 98 94 93 97 97 97 95 98 97 95 93 90 90 89 82 82 84 88 87 75 79 81 74 67 59 58 56 54 50 41 27 10
75 70 43 42 56 68 66 70 73 87 99 100 99 100 96 99 100 100 99 100 96 94 94 94 93 88 89 90 93 97 91 86 88 81 73 64 62 63 60 52 41 28 14 8
66 64 65 72 80 79 76 70 73 91 100 100 98 97 99 100 100 100 98 95 98 99 96 92 89 92 94 93 98 97 89 93 90 78 71 66 66 65 52 44 34 20 15 8
83 80 83 91 91 83 87 84 80 95 100 100 99 100 100 99 97 97 98 97 96 93 92 92 93 94 94 97 92 89 94 98 87 78 73 72 72 61 55 42 28 21 10 8
98 98 100 98 97 96 93 100 98 99 96 94 95 96 98 100 100 100 97 92 92 95 95 95 94 95 90 84 90 96 97 98 86 81 80 78 71 65 51 38 28 15 10 8
100 100 100 100 100 100 100 100 100 100 100 100 100 98 97 99 98 94 94 96 98 96 95 95 94 81 86 97 100 98 99 98 92 89 83 77 70 59 47 34 25 14 12 6
100 100 100 100 100 100 100 100 100 100 100 100 100 100 100 99 98 95 96 99 100 100 97 86 80 83 96 100 100 98 99 100 98 96 86 77 70 56 40 29 18 13 9 6
98 98 100 100 100 100 99 99 100 100 100 100 100 100 100 100 100 98 94 96 100 99 91 85 83 88 100 100 98 95 97 99 100 98 89 81 67 49 36 25 15 10 7 6
70 81 96 98 100 100 100 100 100 100 100 99 98 99 100 100 100 100 98 98 99 95 89 85 88 98 100 94 94 91 93 98 98 97 93 79 58 41 31 17 12 7 6 11
73 79 77 74 74 83 93 98 99 100 100 100 100 100 99 99 99 94 93 97 96 92 94 95 98 100 99 91 91 91 94 96 97 99 93 72 52 37 20 12 8 6 6 28
36 44 51 58 62 66 67 69 71 80 90 92 88 81 78 83 91 92 95 100 100 99 99 99 100 100 98 92 93 94 96 99 100 97 84 61 42 21 12 10 7 7 8 52

GFSNGP_500_rhum_051.txt.gz
RH
40 44 40 31 26 21 17 22 48 76 64 58 51 42 40 29 18 22 28 34 40 40 43 16 22 50 57 41 51 96 100 87 68 51 48 40 76 86 50 55 70 89 89 86
52 45 31 27 19 19 27 45 80 74 67 51 50 43 42 30 46 34 40 51 40 40 40 16 31 39 80 79 60 63 74 87 84 82 72 60 79 92 66 49 55 69 82 71
44 33 28 22 30 39 68 81 70 62 55 52 57 51 45 49 49 40 47 43 45 48 42 25 20 30 48 92 86 72 61 62 66 55 52 54 61 78 55 29 55 83 71 63
32 25 20 29 63 84 84 82 61 44 43 68 61 54 56 53 46 55 47 40 51 54 50 56 58 36 59 99 97 100 93 100 100 94 99 94 77 49 37 71 95 96 64 69
31 18 26 61 91 95 85 62 52 49 45 57 58 58 61 48 53 44 40 45 48 60 64 69 76 86 77 72 85 100 100 100 100 100 83 91 91 91 99 89 89 92 96 100
16 34 50 88 94 84 73 76 71 66 56 55 73 64 64 49 51 53 58 61 60 54 64 66 78 97 99 100 95 89 85 88 91 96 96 99 100 100 97 94 98 96 98 97
34 45 86 98 94 84 87 80 70 59 62 57 68 79 75 63 60 58 58 68 78 67 72 61 78 65 68 89 95 97 96 96 95 94 98 97 96 98 99 100 100 92 96 98
56 89 94 94 80 80 88 76 69 65 63 61 64 77 74 63 74 70 57 65 69 76 69 76 87 78 74 84 95 96 98 95 99 99 98 99 99 98 97 92 93 100 98 80
86 95 96 82 70 80 84 75 78 73 64 66 70 80 78 71 74 83 86 76 82 82 81 82 81 84 82 79 87 80 92 95 95 89 88 89 92 96 91 67 50 53 68 73
86 99 86 81 78 74 78 81 80 76 79 78 76 74 87 79 75 80 88 88 86 84 83 84 94 89 80 83 89 95 94 86 73 61 52 46 46 55 72 81 76 58 52 54
97 98 84 78 63 60 64 75 78 80 82 79 80 85 81 90 85 82 83 89 89 88 82 78 70 60 49 44 42 42 42 44 47 54 64 73 76 69 58 52 54 57 55 46
83 92 82 68 57 45 43 45 53 80 85 90 84 86 87 86 84 87 88 95 90 80 76 67 54 45 40 40 43 47 49 52 59 63 62 59 53 51 57 61 59 51 41 38
87 99 83 63 57 58 44 46 45 53 69 88 98 87 91 90 85 90 93 100 93 64 58 50 42 45 49 45 46 55 60 63 63 60 54 53 58 62 63 60 53 45 43 39
76 96 88 61 58 62 50 43 50 47 58 88 95 90 90 89 86 100 95 95 78 76 73 78 69 63 60 62 66 68 72 71 66 60 62 63 66 66 61 53 45 43 40 35
47 94 98 84 70 67 55 43 53 52 72 88 89 89 94 88 88 89 95 95 85 78 84 82 82 77 78 79 77 78 81 80 80 73 70 68 68 62 55 48 46 43 41 36
44 83 100 97 87 76 52 47 55 59 77 86 82 88 96 91 90 87 95 94 89 86 85 88 86 84 86 86 82 83 85 85 86 81 74 72 66 59 52 51 50 48 45 39
47 63 90 99 84 64 50 50 52 58 74 79 88 87 94 95 96 91 95 100 94 93 93 91 91 90 88 86 88 86 85 84 83 77 74 73 66 60 56 57 55 52 47 36
55 63 82 86 64 52 45 46 53 62 69 74 86 89 96 96 91 96 99 100 100 97 93 86 89 89 88 88 86 85 84 83 79 79 79 75 68 64 65 66 60 55 46 33
61 66 84 84 77 56 50 55 64 72 68 79 89 89 98 98 100 100 100 100 99 93 87 90 87 85 89 87 85 84 78 79 82 82 84 80 75 74 77 69 61 57 43 23
59 65 73 84 74 74 83 84 77 79 85 82 92 99 100 100 100 100 100 96 94 94 91 88 86 88 88 87 84 78 85 87 83 84 90 91 87 87 83 72 66 55 34 22
82 97 94 96 93 97 94 90 88 89 87 100 97 97 100 100 100 100 97 96 95 92 88 89 87 84 86 84 77 84 84 85 85 86 94 98 97 96 91 80 69 53 30 24
100 99 99 100 100 100 95 88 88 92 98 97 100 95 99 100 99 99 98 97 94 92 91 88 87 88 82 79 80 85 85 83 85 86 94 99 98 97 94 85 70 51 34 17
100 100 100 100 100 98 98 100 100 100 99 100 100 100 99 100 100 100 99 98 96 92 89 89 91 89 86 83 86 90 86 87 90 90 93 98 97 93 90 82 66 47 22 15
96 100 100 100 100 100 100 100 100 100 98 96 100 100 100 100 100 100 100 98 95 94 91 89 92 92 88 88 92 95 92 93 93 96 97 99 99 94 94 79 55 31 17 10
48 64 78 89 94 98 100 100 100 100 100 100 100 100 100 100 100 99 99 98 97 100 100 100 96 96 99 100 100 100 100 96 96 100 100 100 98 98 87 62 38 18 11 6
35 37 40 45 60 74 78 82 90 95 98 99 98 99 100 100 100 100 100 100 100 100 100 100 100 100 100 100 100 100 98 98 100 100 100 100 100 96 70 40 18 12 8 8
12 12 13 17 23 34 46 58 67 68 70 72 76 86 97 100 100 100 100 99 90 93 100 100 100 100 100 100 100 100 99 100 100 100 100 100 100 83 48 20 13 10 9 18

GFSNGP_500_rhum_054.txt.gz
RH
29 32 37 38 37 35 28 22 19 22 42 56 63 54 48 42 34 37 31 27 30 29 31 30 30 20 18 23 48 67 46 46 98 100 100 99 99 97 79 63 72 65 44 34
32 39 44 42 34 28 21 16 31 63 76 68 58 49 47 43 43 37 28 32 27 36 30 27 32 26 20 32 59 38 46 70 100 100 100 99 100 97 77 66 77 82 86 56
43 48 48 38 30 23 22 30 68 80 70 72 56 57 48 52 45 36 33 30 40 40 33 33 36 42 26 38 66 67 66 74 86 94 100 98 92 81 79 64 64 80 60 50
53 48 39 31 28 31 53 86 87 76 55 42 51 62 52 48 46 46 34 43 44 44 42 50 44 45 51 42 60 82 98 98 100 92 81 84 82 100 68 75 82 78 62 54
53 42 32 22 31 74 87 92 79 51 42 39 41 53 59 54 48 51 46 50 44 40 55 55 61 54 56 69 67 71 84 95 98 100 100 100 100 100 97 90 83 81 81 93
39 34 21 24 76 96 94 77 54 49 53 53 54 50 54 59 59 50 47 49 46 44 56 52 58 64 69 77 87 88 92 92 91 91 74 79 80 78 76 99 99 98 96 100
38 23 23 50 91 96 84 68 59 67 61 67 53 51 63 67 63 59 58 56 58 53 61 57 53 51 64 72 71 84 97 98 100 100 100 98 96 100 99 98 98 100 99 97
13 20 38 79 92 94 83 67 67 67 71 66 62 64 69 64 62 62 68 64 62 59 60 69 67 61 66 80 72 81 94 100 99 95 96 95 98 98 98 98 97 96 89 76
32 44 68 99 96 86 73 77 74 69 75 72 71 74 65 67 71 72 74 76 70 67 75 79 84 73 73 80 86 93 91 82 81 80 82 84 80 69 54 51 54 66 73 67
43 56 96 95 89 71 74 72 66 74 78 80 74 72 77 74 75 80 83 80 77 76 78 76 73 68 56 47 41 41 41 42 44 48 53 59 66 70 70 64 57 56 58 60
48 67 92 93 75 81 67 69 73 78 79 75 79 78 78 87 86 80 83 86 84 78 77 72 63 49 41 38 41 42 44 48 53 57 58 59 58 56 54 55 60 62 58 49
50 52 96 91 91 67 53 45 49 59 68 68 78 85 85 84 92 91 89 93 94 88 73 54 46 40 44 46 47 54 60 61 62 61 58 55 54 56 61 64 62 56 47 40
64 53 99 90 74 60 52 45 49 46 45 45 64 87 94 89 83 91 92 98 96 72 68 66 72 65 65 64 67 70 68 68 70 68 64 64 66 65 67 65 57 49 43 44
65 49 76 91 74 67 64 63 51 46 46 43 52 82 88 91 87 84 92 100 100 89 77 81 80 80 79 79 78 77 75 80 84 84 83 81 74 71 68 62 55 49 48 46
62 55 56 94 85 72 65 69 62 49 48 49 70 89 89 83 90 91 90 97 100 96 84 86 88 88 88 85 85 87 86 85 87 90 88 81 73 74 72 63 55 52 52 50
54 57 47 80 95 90 77 81 70 53 51 52 74 87 85 85 89 94 95 95 100 100 96 93 95 95 93 94 93 92 92 93 91 85 81 75 76 77 72 66 60 59 57 52
48 56 44 50 84 97 95 91 71 55 56 57 66 78 88 89 90 88 97 100 100 100 100 100 100 100 98 98 97 94 91 90 84 78 76 74 75 80 78 73 69 68 64 62
66 58 54 49 76 89 98 95 66 51 50 54 65 74 86 93 90 90 96 100 100 100 100 100 100 100 100 98 96 94 90 86 76 75 77 74 76 81 83 79 78 76 75 71
83 72 58 55 66 87 97 83 72 53 55 62 72 74 83 99 99 99 100 100 100 100 100 100 100 99 100 99 98 92 89 78 78 78 77 78 78 81 82 82 80 75 72 68
91 84 73 63 69 88 94 94 77 63 68 78 79 82 93 99 99 96 100 100 100 100 100 99 99 100 100 98 94 92 84 76 77 78 77 77 77 76 77 81 80 75 67 67
91 85 70 66 67 74 87 89 91 92 91 90 98 100 100 95 95 96 99 100 100 100 100 100 100 100 98 92 94 86 79 79 80 81 81 79 81 81 82 84 85 78 74 75
100 99 100 99 80 83 97 100 100 100 97 86 86 95 97 92 94 100 100 100 100 100 100 100 100 100 92 93 91 88 84 82 85 89 86 85 85 87 88 84 86 83 80 62
100 100 100 100 100 100 100 97 99 100 100 100 100 100 100 99 97 100 100 100 100 100 100 100 100 100 93 95 97 95 93 94 95 90 87 86 89 90 87 85 87 87 77 35
84 98 100 100 100 100 100 100 100 100 100 100 100 100 100 100 100 100 99 100 100 100 100 100 100 100 100 100 100 100 100 97 90 88 88 90 90 90 90 92 92 90 57 19
36 38 36 54 79 94 99 99 100 100 100 100 100 100 100 100 100 100 100 100 100 100 100 100 100 100 100 100 100 100 100 96 92 91 90 93 94 93 94 96 97 78 27 17
14 19 25 29 30 30 30 34 47 66 84 94 97 99 100 100 100 100 100 100 100 100 100 100 100 100 100 100 100 100 100 100 97 93 93 94 94 93 94 97 91 48 18 17
18 17 17 16 16 15 14 13 14 16 24 32 42 52 67 77 86 92 94 98 100 100 100 98 98 100 100 100 100 100 100 100 100 97 93 94 94 93 95 98 73 22 18 17

GFSNGP_500_rhum_060.txt.gz
RH
88 71 51 47 40 31 29 35 32 31 28 25 22 19 17 15 21 33 37 34 29 25 23 21 21 23 18 14 14 14 18 18 18 20 20 25 40 43 52 82 68 55 52 40
68 56 36 32 32 37 41 41 36 30 24 19 16 14 19 42 42 39 36 32 34 33 26 27 32 25 19 20 18 16 18 22 23 23 28 36 42 57 82 94 99 100 100 100
39 35 37 39 44 43 40 35 29 24 21 20 22 40 53 54 50 46 42 43 41 34 32 36 36 30 29 21 21 22 21 29 27 24 28 35 52 59 62 84 98 100 100 100
34 38 42 47 44 42 37 31 26 21 21 33 59 63 58 56 50 51 46 38 39 40 39 37 34 35 33 29 30 30 25 29 35 33 39 40 50 60 76 88 92 99 100 93
39 46 49 47 42 37 32 28 25 35 64 79 77 58 46 45 54 52 51 44 45 47 45 37 37 38 38 33 40 35 35 34 39 41 43 51 65 71 81 85 96 96 97 89
46 50 50 46 42 38 28 25 40 74 93 84 60 47 42 38 42 42 44 48 56 49 45 49 47 47 45 45 49 46 43 42 48 50 55 60 65 71 83 87 95 99 100 100
51 59 54 49 43 36 29 46 69 97 87 62 57 50 48 44 46 52 52 58 60 55 49 52 54 55 58 51 49 54 53 52 52 50 55 64 66 70 84 88 84 90 95 98
56 62 51 44 42 34 26 36 91 99 77 71 63 59 55 54 57 54 55 59 68 72 61 54 52 54 53 58 54 60 58 36 32 34 37 39 42 46 52 56 58 60 62 61
67 59 53 47 40 32 26 76 100 99 78 73 73 64 59 65 67 65 59 60 60 68 74 69 63 63 64 61 51 41 33 34 40 47 50 51 51 50 48 49 49 50 53 56
54 50 46 36 24 21 36 92 100 93 81 78 78 72 73 73 76 74 67 65 65 65 70 78 76 69 57 46 37 34 39 49 55 54 55 56 55 56 61 60 56 58 60 59
50 46 37 29 32 40 68 98 100 86 84 79 78 78 82 85 82 80 79 78 77 77 78 77 75 65 48 39 42 48 56 59 56 55 58 64 67 68 65 64 62 60 60 60
77 50 36 31 43 60 93 100 99 80 85 81 76 76 73 77 91 89 85 84 82 89 85 84 75 54 54 60 64 68 67 63 62 66 69 69 70 70 68 65 63 63 64 61
83 74 46 35 38 50 93 100 92 83 78 70 56 55 54 64 56 82 85 85 84 84 93 85 68 81 91 85 79 78 77 75 76 77 74 73 72 72 66 66 62 60 62 64
84 77 67 41 34 37 68 95 90 81 64 54 54 53 49 49 47 67 79 88 83 88 90 94 90 92 96 93 89 90 89 88 84 80 76 74 73 71 67 66 65 66 68 70
72 64 64 52 38 37 43 90 92 76 62 66 62 56 55 52 62 78 78 88 89 91 86 86 88 84 86 90 95 98 96 91 87 81 76 76 75 72 71 74 71 67 64 64
67 58 53 53 45 41 41 54 89 80 68 74 74 76 61 56 70 85 84 87 88 94 94 89 88 90 91 93 96 98 100 95 92 85 81 80 80 75 76 76 71 67 64 64
72 67 57 54 47 42 45 42 62 86 72 69 73 81 79 61 65 76 79 80 90 95 100 96 99 100 100 100 99 100 100 100 96 88 85 84 87 80 79 80 77 73 71 70
76 68 61 56 51 44 39 46 44 65 86 80 77 78 89 72 60 65 71 71 84 97 98 98 100 100 100 100 100 100 100 100 96 92 90 91 91 81 83 84 83 81 77 76
85 87 83 68 59 53 48 50 51 48 70 99 96 90 96 91 60 57 68 76 84 92 97 97 100 100 100 99 99 100 100 100 96 95 93 97 92 90 89 90 87 79 76 75
92 100 100 100 93 74 56 52 58 54 53 78 99 100 96 90 93 92 91 86 87 95 90 96 100 99 99 100 100 100 100 98 98 98 99 100 98 96 96 91 86 82 76 73
99 100 100 100 93 92 88 78 71 65 62 75 93 96 96 97 95 92 98 98 98 100 100 100 100 100 100 100 100 100 100 100 100 100 100 100 100 98 94 90 87 82 76 70
100 100 92 97 100 100 98 88 81 75 75 80 81 86 97 100 100 100 100 100 100 100 100 100 100 100 99 100 100 99 100 100 100 100 100 100 97 95 93 89 87 84 80 76
98 100 100 100 100 100 99 100 100 100 97 93 91 92 99 100 100 100 100 100 100 100 100 100 98 98 97 100 100 100 100 100 100 100 100 100 100 99 98 89 87 91 91 87
38 43 63 84 100 100 100 100 94 91 95 100 100 100 100 100 98 99 97 92 89 94 98 97 98 100 100 100 100 100 100 100 100 100 100 100 100 100 98 96 96 99 98 97
22 22 23 28 30 40 59 90 99 100 100 100 100 100 100 100 100 100 100 100 100 100 100 100 100 100 100 100 100 100 100 100 100 100 100 100 100 98 98 97 99 100 100 100
12 15 15 14 14 13 15 23 34 40 52 52 54 54 55 60 63 62 56 55 57 60 68 74 78 86 94 98 100 99 100 100 100 100 100 100 98 96 98 99 99 100 100 100
14 14 14 16 17 17 16 15 15 15 15 15 16 17 17 17 17 17 18 18 19 19 18 18 20 23 32 49 67 78 85 93 100 100 100 99 99 99 97 99 98 100 100 100

GFSNGP_500_rhum_063.txt.gz
RH
80 75 76 77 63 50 56 64 69 50 37 31 29 28 24 21 19 18 16 15 14 19 24 26 24 21 17 17 18 12 10 14 13 13 11 10 13 18 25 22 26 43 55 47
73 86 64 62 54 52 53 79 53 34 30 28 29 26 23 20 18 21 32 39 35 35 34 29 25 23 24 24 19 14 12 14 15 15 15 17 23 24 27 36 40 44 55 58
74 82 59 41 37 33 38 36 38 37 34 29 25 20 18 21 24 43 44 42 39 38 37 34 31 31 35 28 21 21 20 20 20 21 21 23 22 27 32 41 52 50 59 72
46 71 57 57 47 44 43 42 40 34 28 25 21 19 30 43 49 53 46 46 45 43 43 42 38 35 33 32 29 30 26 29 28 28 24 26 29 33 38 40 49 57 67 69
38 36 41 48 48 47 44 38 34 30 26 24 20 39 63 61 55 49 51 54 51 44 44 45 42 39 32 35 40 35 34 35 35 36 33 35 41 45 48 47 53 57 62 74
34 38 41 50 49 45 40 34 32 28 30 48 71 82 65 49 40 40 45 51 49 46 48 48 47 45 44 45 45 48 42 44 42 40 43 42 36 34 34 36 36 37 46 70
37 39 45 52 50 46 42 38 35 32 57 81 88 73 59 51 51 49 44 46 42 41 50 55 51 49 55 53 58 55 49 50 52 36 32 31 34 36 35 36 38 40 42 47
52 46 48 50 52 47 40 38 35 40 80 97 80 68 63 56 50 55 46 43 49 51 57 68 62 54 55 57 65 57 52 61 46 32 36 39 38 37 40 42 45 46 46 48
71 65 61 56 51 48 44 38 27 40 92 99 81 79 71 61 56 55 55 59 58 53 56 66 76 73 72 68 70 60 51 38 33 39 44 41 41 43 47 52 53 52 51 52
71 66 64 62 56 53 46 38 28 68 100 97 84 84 76 69 68 63 59 59 65 62 59 64 70 75 75 72 58 45 37 35 45 51 47 45 45 49 55 58 56 54 53 55
54 61 58 56 55 51 41 27 25 72 100 100 92 90 85 80 74 72 71 66 71 67 68 72 77 76 75 67 52 39 43 53 58 58 55 52 56 60 62 61 58 54 52 51
57 52 52 49 45 35 26 29 32 87 100 100 88 88 88 86 75 66 74 81 74 81 78 76 80 81 78 60 49 57 65 68 66 67 64 66 69 67 65 62 57 54 52 53
33 66 61 53 46 36 33 40 63 92 100 99 87 88 86 83 73 66 57 80 82 79 82 74 79 83 75 68 79 83 82 79 77 77 77 76 74 71 69 65 61 60 58 52
31 40 72 63 54 44 34 36 66 100 100 97 86 80 61 52 47 42 45 53 77 84 80 80 85 87 85 79 82 90 88 84 85 87 86 84 81 77 74 71 67 66 63 59
31 34 53 70 61 56 44 38 45 91 100 100 87 59 58 57 56 49 48 57 78 79 80 82 86 88 94 93 85 82 86 91 93 94 96 93 86 80 76 75 73 71 71 66
54 42 52 68 62 56 52 47 42 47 95 100 86 62 72 73 61 58 55 71 82 85 86 93 87 87 90 94 95 98 100 99 98 99 100 98 92 84 79 79 78 75 76 74
77 74 62 57 53 48 44 44 43 45 51 93 92 70 70 73 78 72 61 61 69 76 84 91 92 97 96 97 98 97 98 99 98 100 100 100 94 88 82 83 79 79 79 80
80 82 80 76 65 55 44 38 40 43 46 51 87 86 76 75 72 81 80 62 56 60 73 77 87 90 97 100 100 99 100 96 96 100 100 100 95 89 86 85 83 84 85 81
95 93 88 86 83 73 61 51 43 42 45 48 48 78 98 95 87 86 91 88 65 60 71 75 80 91 98 100 100 100 99 92 97 100 100 98 96 91 90 90 91 89 85 82
100 98 98 100 100 97 84 67 56 49 49 54 53 51 72 99 100 99 96 94 92 93 94 98 96 99 98 100 100 100 98 97 100 100 100 100 98 94 91 90 88 87 85 78
100 100 100 100 100 100 98 91 80 70 62 59 61 58 61 81 99 99 100 100 98 98 100 100 100 100 100 97 100 100 100 100 100 100 100 100 100 99 96 94 92 92 90 82
100 100 99 97 88 94 100 100 96 88 84 80 74 66 65 82 96 100 100 100 100 100 100 100 100 100 100 100 100 100 100 100 100 100 100 100 100 100 99 99 100 100 94 86
80 94 99 100 99 95 92 95 100 100 99 90 84 85 90 93 94 89 94 99 99 100 100 100 100 100 100 100 100 99 99 98 98 100 100 100 100 100 100 100 100 94 93 92
32 30 34 42 68 93 100 100 100 100 100 100 100 100 100 100 100 100 100 100 100 100 100 100 100 97 97 100 100 100 100 100 100 100 100 100 100 100 100 100 99 100 99 93
29 27 24 22 21 24 28 46 70 92 99 100 94 89 98 100 100 100 100 100 100 100 100 100 100 100 100 100 99 99 99 98 98 99 100 100 100 100 100 100 100 100 100 99
28 24 18 14 14 16 17 16 15 15 20 35 55 72 87 90 92 93 93 92 87 77 59 43 30 25 23 22 24 26 28 30 31 40 57 79 88 99 100 100 100 100 99 98
18 10 13 14 12 12 14 16 17 16 14 14 14 15 16 17 17 17 17 16 16 17 16 13 13 13 14 16 17 16 16 16 18 21 23 23 25 46 48 77 99 100 100 99

GFSNGP_500_rhum_066.txt.gz
RH
66 65 61 62 65 68 71 82 78 90 78 64 58 42 34 29 26 24 21 19 17 16 14 13 12 12 17 21 20 17 15 17 12 9 9 10 9 11 11 12 14 21 28 27
82 76 68 62 59 64 64 59 65 75 85 77 63 40 33 30 26 23 20 18 16 15 14 19 25 29 28 27 23 20 21 21 15 11 13 14 15 15 16 17 24 26 29 30
74 72 78 79 69 66 57 53 57 68 62 54 36 34 33 28 24 21 18 17 19 34 38 36 34 34 32 29 27 29 27 24 23 21 22 22 19 19 22 24 31 35 33 32
70 71 74 70 53 47 45 43 48 56 55 41 37 31 26 22 20 20 21 34 49 47 44 42 42 40 39 38 34 31 32 30 28 22 25 29 28 30 36 37 33 29 28 29
68 56 65 71 60 52 48 47 45 46 41 36 30 26 22 20 33 50 55 56 51 44 44 43 41 38 43 44 39 32 35 35 35 29 32 36 36 41 35 29 28 26 25 26
59 47 39 47 75 64 52 47 43 39 34 32 28 25 30 46 65 60 52 44 37 37 42 45 48 48 46 45 41 39 43 46 44 44 44 45 40 32 32 32 29 28 29 32
36 35 34 44 51 60 56 45 40 36 32 29 30 49 75 76 66 49 41 38 38 37 37 35 35 34 43 48 47 48 50 51 54 54 52 43 33 36 36 33 34 36 38 38
43 35 42 48 50 52 49 46 43 40 38 35 52 88 89 75 62 55 54 53 49 44 42 39 40 50 59 58 54 57 56 58 58 65 59 34 42 42 37 38 40 43 44 41
68 61 57 51 51 55 52 47 43 39 33 43 76 100 86 70 64 60 56 62 58 50 47 48 47 48 61 69 71 73 72 66 59 43 35 43 48 43 43 43 46 49 49 44
75 62 59 55 56 59 54 48 46 43 34 30 74 97 88 75 75 69 72 66 59 57 56 53 57 57 63 70 74 73 62 49 40 38 48 54 52 49 49 51 55 55 51 47
52 60 65 63 59 60 59 55 51 46 39 30 74 100 99 85 79 78 73 68 64 63 63 64 61 64 68 73 75 70 56 44 42 55 63 59 59 60 60 58 59 60 57 54
32 35 38 46 59 59 57 56 53 47 30 29 75 100 100 91 81 82 83 74 63 65 72 73 67 71 74 76 83 66 52 58 67 72 74 75 73 70 68 67 65 64 62 60
22 22 24 27 39 50 52 48 42 33 28 30 80 100 100 91 85 86 83 72 65 48 60 73 73 75 79 84 84 68 75 81 85 89 85 83 84 83 80 76 72 69 67 64
23 19 16 18 31 44 51 49 41 34 39 70 94 100 100 90 87 82 79 73 63 51 49 69 77 78 82 86 88 82 82 86 89 86 85 88 92 94 93 87 80 76 72 71
26 21 18 15 22 33 53 56 48 40 42 70 99 100 99 92 79 56 55 56 50 48 48 62 78 84 86 88 90 90 93 92 87 91 95 93 91 94 96 97 92 87 79 78
31 25 20 21 23 26 46 59 56 46 45 48 94 100 98 94 60 59 67 62 55 55 72 79 81 78 86 96 96 92 90 92 94 94 95 96 93 97 99 100 95 88 81 84
36 40 46 51 42 36 48 56 53 50 45 46 48 88 100 100 71 72 80 79 64 58 60 68 75 71 74 83 90 95 98 100 100 98 97 94 88 94 98 99 95 91 86 88
78 82 78 76 71 61 50 46 42 44 46 45 48 49 77 99 90 78 73 69 79 76 67 57 54 53 59 70 86 94 100 100 100 100 100 95 88 92 98 100 100 99 93 90
98 99 91 89 85 79 71 63 58 53 47 47 49 51 52 62 99 98 80 80 79 83 80 78 74 68 66 74 84 99 100 100 100 100 96 95 96 100 100 99 100 100 96 94
100 100 100 100 96 91 86 78 69 62 55 53 54 50 54 54 53 77 100 100 98 96 90 88 93 95 97 95 97 100 100 100 100 99 93 97 100 100 100 100 98 97 100 100
100 100 100 100 100 100 100 100 100 93 73 64 62 58 57 62 63 62 70 96 100 100 100 100 99 100 100 100 99 100 100 100 97 97 99 100 100 100 100 98 98 100 100 99
100 100 100 100 100 100 100 100 100 100 98 94 85 72 66 68 74 71 70 86 100 100 100 100 100 100 99 100 100 100 100 100 100 100 100 96 96 96 99 98 99 100 100 98
74 82 88 93 92 90 88 90 94 98 98 100 100 94 86 84 84 81 80 92 100 98 90 93 100 100 100 100 100 100 100 100 100 99 96 98 100 100 100 100 100 100 100 100
39 38 35 31 29 29 34 57 78 83 85 89 96 100 100 99 100 96 94 98 98 100 100 100 100 100 100 100 100 100 100 100 100 100 100 100 99 86 94 94 100 98 100 100
36 33 31 30 27 24 22 21 21 23 37 48 66 84 96 94 89 98 100 100 100 100 100 100 100 100 100 100 100 100 98 95 79 42 29 22 21 22 22 23 24 25 26 29
40 38 35 32 27 20 10 10 12 16 18 16 15 15 19 34 55 77 85 91 94 92 93 86 78 61 44 27 20 18 18 17 16 15 14 13 14 15 15 16 17 16 18 20
27 26 23 20 18 13 17 15 13 14 15 16 15 14 14 14 15 17 18 18 18 18 18 18 17 17 16 16 15 13 13 13 14 13 13 14 14 14 15 16 18 17 17 17

GFSNGP_500_rhum_072.txt.gz
RH
50 61 70 71 75 72 75 82 73 77 76 99 100 100 100 100 97 93 79 66 61 54 46 44 52 52 43 37 27 20 17 16 14 12 14 19 19 15 15 12 10 11 11 13
50 51 57 69 65 64 81 73 64 77 70 98 98 96 91 82 82 74 48 56 38 30 28 26 24 22 20 19 17 15 14 14 15 22 25 21 19 18 17 13 13 15 20 20
55 59 56 53 76 69 67 86 91 68 90 72 88 92 100 88 70 55 42 36 32 29 26 24 22 19 17 16 15 18 22 26 31 31 27 24 23 22 22 20 22 20 22 25
64 62 50 62 68 66 64 62 59 61 67 61 63 69 87 94 89 78 95 67 34 28 24 22 20 19 23 27 35 36 36 36 35 34 32 30 30 31 29 29 26 26 33 34
79 70 64 62 64 63 62 68 67 63 62 63 54 63 62 51 46 40 38 34 28 23 23 24 23 30 42 47 45 43 42 42 43 42 39 34 32 34 36 36 37 40 40 34
87 68 74 69 65 63 66 68 57 52 54 52 53 70 60 48 41 35 30 26 28 36 50 53 50 56 54 50 47 46 45 44 45 48 44 41 47 49 50 50 49 41 34 36
66 73 61 61 64 53 76 69 59 52 47 48 49 47 44 47 40 32 32 37 57 65 64 60 58 53 47 41 37 36 35 41 46 50 55 59 56 57 64 61 56 37 40 40
53 49 41 52 45 57 58 70 79 68 56 50 62 47 39 38 48 55 54 64 76 68 55 53 48 43 41 40 38 43 47 51 57 62 64 70 70 70 74 66 42 43 46 46
68 57 54 53 48 48 45 66 89 82 76 54 44 43 41 44 54 74 89 90 77 62 59 61 55 54 50 43 39 40 48 61 69 69 74 78 77 77 52 44 53 55 53 53
88 82 73 70 69 61 57 60 67 83 78 70 48 43 40 46 61 98 100 89 76 73 71 72 66 59 56 55 48 48 56 64 68 74 73 71 75 80 53 61 63 64 68 68
36 50 72 78 76 68 65 62 59 61 63 58 50 48 46 39 44 78 100 99 90 88 89 84 71 62 60 63 61 62 65 66 72 75 71 55 56 59 66 74 77 78 77 77
37 28 28 40 64 77 75 68 58 52 52 56 55 51 48 46 43 44 82 100 93 89 83 77 77 76 72 78 75 74 68 76 79 80 72 56 60 71 82 90 94 90 84 86
39 30 32 34 35 40 44 46 54 61 62 58 56 56 54 51 46 38 56 96 98 96 87 90 90 82 72 77 79 77 71 75 81 82 74 71 82 91 93 94 92 85 89 88
42 32 30 26 25 22 21 22 22 27 38 55 59 58 57 54 51 40 35 92 100 100 99 97 84 81 76 75 63 68 75 81 85 88 83 79 81 87 92 91 89 97 94 89
48 36 27 22 21 22 20 19 18 17 17 21 41 53 52 47 41 35 37 79 100 100 100 100 91 81 76 53 54 63 80 80 85 87 88 92 95 98 94 94 96 96 92 87
58 41 32 27 28 26 21 20 18 15 15 18 20 41 54 53 43 39 53 82 99 100 100 100 86 59 58 58 57 68 89 89 90 96 100 98 96 97 97 96 94 92 89 88
81 53 42 38 37 33 34 30 25 23 19 20 23 28 58 61 54 46 49 80 99 100 100 91 68 68 70 66 84 92 94 85 76 83 94 99 100 95 99 100 98 98 94 95
81 70 54 46 38 37 40 37 35 29 24 30 40 34 51 66 66 56 47 50 90 100 100 97 79 86 85 77 79 80 80 77 77 74 74 82 88 96 100 100 100 100 100 97
76 73 66 60 58 53 44 38 46 50 46 63 64 53 53 65 62 58 54 49 48 76 97 100 91 93 100 100 97 94 88 83 83 85 89 95 100 100 100 100 100 100 99 97
69 67 64 56 62 85 90 91 99 94 88 82 79 78 68 58 54 51 52 54 50 51 53 85 100 95 91 91 91 95 100 100 100 100 100 100 100 100 100 100 100 100 99 100
85 97 100 100 95 97 96 99 100 100 100 100 96 88 82 75 68 63 57 53 50 54 57 59 62 94 100 100 100 100 100 100 100 100 100 100 100 100 100 100 100 100 100 100
100 100 100 100 100 100 100 100 100 100 100 100 100 100 100 100 96 83 76 68 63 61 60 60 65 69 71 79 98 100 100 100 100 100 100 100 100 100 100 100 100 100 100 100
100 100 100 100 100 100 100 100 100 100 100 100 100 100 100 100 100 100 98 92 86 81 78 77 79 80 82 85 93 100 100 100 100 100 100 100 100 100 100 100 100 100 100 100
78 72 84 96 98 94 61 39 34 31 27 24 28 65 86 94 100 100 100 100 100 100 97 96 99 99 99 100 100 100 100 100 100 100 100 100 100 100 100 100 100 97 50 25
47 43 47 51 46 42 38 36 34 33 27 14 12 18 21 25 32 33 36 44 68 86 95 99 100 100 100 100 100 100 100 100 100 100 100 99 97 93 77 41 22 22 20 17
53 30 15 17 29 36 38 38 37 30 24 17 15 11 12 17 18 17 13 12 11 12 14 19 24 38 44 43 40 34 26 20 17 18 18 18 18 18 17 16 16 15 16 16
57 31 23 17 17 18 26 28 26 24 21 16 15 15 14 14 14 14 15 19 21 22 24 26 26 26 25 25 25 27 31 35 37 38 37 37 35 31 27 24 22 21 22 27

GFSNGP_500_rhum_075.txt.gz
RH
90 94 93 89 92 77 59 68 65 66 78 90 91 95 98 97 91 81 77 86 94 93 92 90 75 65 61 62 54 47 41 39 41 44 39 23 17 15 14 14 18 17 17 13
51 51 54 67 74 75 75 73 60 74 69 100 92 89 93 100 97 100 97 87 86 84 88 93 92 85 67 53 46 59 46 41 35 22 17 15 13 15 20 22 19 20 18 14
54 56 50 34 51 60 69 68 80 59 90 74 85 96 100 100 90 85 88 100 89 94 95 81 45 38 34 49 60 24 21 19 17 15 16 19 29 30 26 24 24 24 23 23
61 65 44 58 59 55 49 64 67 72 85 88 88 86 92 90 100 81 82 84 59 50 40 37 31 28 25 24 21 20 21 22 23 31 37 40 36 32 31 32 31 29 29 30
71 65 56 64 62 60 56 57 55 56 59 61 60 60 62 65 83 98 97 95 93 88 49 34 29 26 24 24 28 36 40 41 42 43 43 42 42 40 38 35 34 38 40 40
79 77 68 64 66 61 63 64 59 63 61 53 61 58 63 68 71 72 54 46 42 41 44 36 26 30 37 44 52 52 48 47 47 51 48 44 46 49 42 43 47 48 52 52
83 74 74 68 69 69 65 58 61 64 59 52 50 53 53 65 66 50 45 39 35 30 27 32 40 55 62 60 60 59 52 47 46 50 49 48 49 54 52 56 57 61 68 55
73 64 65 71 61 61 62 58 68 71 65 56 52 49 50 50 48 49 43 45 45 57 70 69 67 62 59 56 50 42 36 32 32 32 35 46 57 59 62 69 70 76 68 49
73 61 60 55 46 54 52 55 62 73 80 66 56 53 63 58 45 49 61 62 73 78 84 78 69 64 62 54 47 42 38 36 37 46 58 62 63 69 76 77 81 62 49 58
63 73 66 57 54 56 52 58 53 81 96 98 88 60 51 50 48 46 48 81 99 97 88 78 80 76 66 59 53 50 48 44 44 47 56 71 79 77 74 68 65 70 77 78
47 80 84 78 73 67 62 57 58 69 83 92 90 89 66 50 45 47 72 100 100 100 90 86 81 79 74 67 61 57 59 60 59 60 66 69 72 66 62 67 75 75 80 83
45 46 36 44 67 77 75 66 62 61 67 80 82 82 83 68 60 53 47 64 95 100 98 92 88 86 82 77 72 70 68 72 72 71 69 69 74 72 61 59 62 78 87 90
49 44 36 36 31 34 46 74 79 74 68 61 58 57 60 67 60 53 54 49 46 71 98 100 98 94 91 89 83 78 73 83 79 73 75 69 76 75 68 70 81 85 83 88
49 52 43 37 32 29 33 41 49 50 50 52 56 60 60 57 54 52 51 54 49 51 91 100 100 100 100 99 93 82 72 65 75 71 76 81 82 81 76 81 87 90 96 92
55 50 52 43 40 35 32 34 31 25 22 21 20 22 34 52 59 58 56 55 51 44 58 97 100 100 100 98 88 87 88 63 55 72 87 84 87 89 90 91 92 94 98 100
82 73 56 52 42 34 28 25 21 21 20 19 17 16 16 18 31 51 53 49 42 40 34 74 100 97 98 100 97 89 63 52 52 64 91 99 100 100 100 100 100 100 100 100
94 86 82 61 48 37 33 30 28 24 23 21 20 20 20 17 18 29 50 54 48 42 48 70 100 96 97 100 85 68 72 62 70 98 100 98 93 96 94 97 98 97 99 100
92 93 92 86 72 47 39 39 36 34 32 33 33 33 29 24 23 26 39 60 63 55 54 72 88 98 100 100 95 81 84 77 82 96 98 93 81 77 80 87 96 100 100 100
100 96 83 78 78 69 54 46 44 42 42 44 39 33 28 22 32 44 35 58 66 64 58 46 69 100 100 100 100 98 100 99 96 93 89 89 94 99 100 100 100 100 100 100
95 83 74 69 68 69 67 62 58 54 54 52 59 70 64 64 69 70 53 53 58 58 55 51 54 55 63 86 100 100 100 100 100 100 100 100 100 100 100 100 100 100 100 100
76 75 73 69 63 60 73 89 89 85 86 85 82 87 93 95 89 82 75 64 61 58 54 52 52 52 55 60 61 80 100 100 100 100 100 100 100 100 100 100 100 100 100 100
100 97 90 93 99 97 88 84 80 86 96 100 100 100 100 100 100 100 100 98 87 78 69 61 59 61 63 65 66 66 69 75 90 99 100 100 100 100 100 100 100 100 100 100
100 100 100 100 100 98 98 99 100 100 100 100 100 100 100 100 100 100 100 100 100 99 93 86 81 79 78 78 81 85 90 94 94 96 100 100 100 100 100 100 100 100 100 100
70 73 78 81 90 100 100 100 99 95 72 45 30 19 20 44 88 99 100 100 100 100 100 100 100 99 99 100 100 99 100 100 100 100 100 100 100 100 100 100 100 100 100 100
60 56 52 44 41 69 81 62 73 54 40 37 34 20 16 11 19 38 58 61 58 54 53 72 88 96 97 99 100 100 100 100 100 100 99 96 86 68 44 30 21 19 19 19
62 62 61 45 24 17 14 23 40 41 39 40 36 27 18 16 12 14 19 19 17 13 12 12 12 13 14 17 20 24 24 22 19 18 18 20 22 26 30 34 38 40 40 38
67 63 63 62 46 30 26 19 17 18 25 27 26 24 19 16 16 15 15 14 15 18 23 26 28 28 28 29 31 34 36 37 39 41 45 48 50 52 53 58 66 70 72 74

GFSNGP_500_rhum_078.txt.gz
RH
89 95 98 99 99 84 42 40 30 41 54 68 91 91 84 100 95 81 64 50 53 67 72 92 93 94 80 82 83 70 58 58 55 46 40 34 32 34 39 40 34 22 16 15
100 96 89 84 92 96 98 91 53 68 50 99 85 86 93 88 98 100 93 86 72 66 72 87 90 95 98 91 84 88 91 87 84 76 68 52 40 38 36 29 16 15 19 21
50 55 50 44 57 62 66 73 77 60 83 73 79 81 95 94 92 99 96 98 98 87 85 96 100 94 91 95 95 93 93 88 59 60 60 41 30 22 17 15 21 28 28 26
59 66 47 52 55 52 44 47 47 55 71 74 91 86 91 96 98 99 99 100 98 99 100 100 99 96 97 85 65 58 45 55 60 30 22 19 18 18 23 32 36 35 34 35
63 64 54 60 65 63 58 63 50 47 55 62 64 70 75 91 79 91 85 95 99 98 98 95 79 76 70 52 36 28 31 40 23 21 24 28 34 41 43 42 42 41 38 38
74 70 62 69 78 71 63 60 52 51 57 53 52 60 68 63 63 63 68 71 94 100 99 99 96 53 36 31 28 26 30 35 41 49 53 51 49 49 48 48 46 48 46 49
75 75 65 89 75 74 63 60 58 58 58 59 61 59 56 52 51 54 59 71 60 54 52 47 44 74 67 39 45 45 42 54 58 56 52 51 52 52 48 48 54 59 58 62
49 64 62 84 87 76 64 65 63 60 60 68 61 54 54 59 59 64 69 60 52 45 37 37 40 51 68 70 68 67 66 61 58 52 49 49 48 49 53 64 69 67 66 70
50 55 72 70 63 68 67 58 63 60 70 72 68 58 54 55 54 53 52 48 49 50 59 63 81 87 79 68 63 59 54 49 46 46 48 52 54 58 66 67 71 75 80 82
48 67 79 71 63 60 48 54 54 58 58 72 84 77 65 61 62 66 52 54 60 63 65 70 78 79 80 75 73 74 66 58 52 51 47 47 56 64 66 76 82 78 76 67
44 62 76 80 71 64 55 56 56 60 56 61 91 99 94 74 55 54 54 50 58 65 76 88 97 94 83 80 85 77 70 65 60 55 58 61 60 60 66 69 64 66 71 74
51 54 60 86 82 83 80 76 70 66 66 71 84 99 100 99 88 72 59 50 51 64 89 99 100 100 95 96 92 84 76 71 73 72 69 70 71 72 71 72 72 64 61 60
40 42 52 56 51 45 49 77 85 76 70 70 71 76 83 94 97 97 91 75 57 52 84 65 99 100 100 100 100 97 90 85 81 82 78 71 74 76 74 82 78 72 68 71
62 42 43 47 48 46 40 36 40 54 77 82 78 72 68 64 62 63 64 67 64 60 58 52 49 79 100 100 100 100 100 97 87 74 70 67 71 73 80 85 88 79 78 83
91 60 50 52 54 48 44 40 41 42 44 52 55 53 52 52 53 54 59 62 62 60 59 58 52 46 62 95 93 97 100 99 95 93 86 80 58 59 87 97 100 98 96 94
99 97 88 68 63 56 49 47 42 36 39 37 30 25 21 19 18 18 20 28 43 56 57 53 51 48 40 70 97 96 95 100 100 96 86 61 56 58 83 97 99 100 100 98
100 100 96 95 90 66 57 52 45 36 32 28 25 23 22 21 20 20 22 21 18 24 46 56 50 41 37 39 87 98 91 91 98 78 70 67 65 73 97 100 100 100 100 99
100 100 96 96 99 97 80 66 53 43 38 33 30 29 30 31 30 28 28 30 23 18 24 43 57 51 45 57 70 93 96 98 97 94 92 86 81 92 98 93 85 87 90 90
99 100 98 98 96 96 99 97 83 60 50 44 39 37 35 35 35 37 34 29 23 18 19 34 59 63 61 55 68 95 100 100 100 100 100 100 99 100 100 98 100 100 100 100
80 85 86 96 89 83 85 92 97 92 80 72 66 61 54 47 42 36 42 55 43 29 31 32 50 62 59 54 52 57 80 96 100 100 100 100 100 100 100 100 100 100 100 100
87 86 90 90 86 82 77 74 68 59 61 75 75 77 78 81 78 71 71 63 67 71 63 53 51 52 51 47 47 50 51 54 60 71 97 100 100 100 100 100 100 100 100 100
98 96 93 88 86 87 93 99 100 100 90 79 77 87 90 85 81 89 99 100 100 98 94 89 84 81 75 68 62 60 62 62 65 68 72 76 86 100 100 100 100 100 100 100
100 100 100 100 100 100 100 100 96 92 93 97 98 99 100 100 100 100 100 100 100 100 100 100 100 98 91 85 83 81 80 78 78 82 86 90 96 98 99 100 100 100 100 100
100 91 85 84 85 88 90 96 99 100 100 100 99 92 63 21 17 18 65 100 100 100 100 100 100 100 100 100 100 100 99 99 99 100 100 100 100 100 100 100 100 100 95 88
87 74 71 70 63 45 32 27 36 83 96 97 95 74 51 42 32 19 12 27 75 89 89 76 63 53 58 83 94 97 97 96 97 99 100 99 97 94 76 54 31 21 20 23
76 69 66 66 68 68 55 33 30 22 16 24 66 72 50 43 36 25 18 14 15 25 24 20 14 13 13 14 14 15 16 17 18 19 20 20 21 23 27 32 37 42 47 50
76 72 69 66 64 64 68 67 43 35 34 28 22 20 24 28 27 25 18 18 18 17 16 15 17 21 26 29 30 30 29 29 29 30 30 31 32 31 32 33 33 32 32 31

GFSNGP_500_rhum_084.txt.gz
RH
100 97 99 100 97 70 66 79 64 50 41 48 68 60 40 34 30 36 28 29 27 23 24 21 29 38 40 39 39 46 57 63 62 63 61 63 64 69 73 73 74 70 60 50
100 99 87 84 88 68 50 42 31 46 28 96 54 51 40 30 29 25 33 35 32 35 37 40 44 51 51 52 53 56 61 65 67 73 78 86 80 77 77 69 52 59 53 51
100 100 99 80 86 86 73 55 84 59 95 86 63 52 41 34 28 35 43 51 53 57 57 50 55 58 51 50 53 56 63 81 94 85 95 96 88 78 78 75 71 78 79 75
94 93 90 81 100 96 78 95 92 76 84 91 72 66 58 55 54 60 57 56 56 60 68 75 83 83 74 68 56 58 67 77 87 100 97 98 99 93 84 84 84 86 78 66
100 97 67 72 85 95 92 81 63 58 54 50 48 57 76 73 68 56 51 50 60 65 74 71 92 94 100 100 99 90 80 79 83 94 95 95 76 60 81 68 63 78 79 58
94 93 77 73 80 76 66 57 59 55 55 54 48 49 47 41 54 63 61 63 68 73 71 86 82 84 92 96 100 100 100 97 96 94 99 97 75 59 60 75 62 64 68 70
84 80 72 81 83 76 61 56 58 59 59 58 54 50 49 44 44 54 64 64 64 66 67 67 65 71 97 100 100 100 99 100 97 94 90 74 60 71 76 94 97 96 86 82
96 80 74 88 82 67 68 74 74 67 64 65 58 55 53 52 53 56 60 60 61 66 71 68 71 85 79 64 68 72 80 97 99 97 94 93 85 95 97 97 97 98 97 96
100 98 83 80 74 72 76 77 77 71 70 72 64 61 60 58 60 63 61 59 62 66 66 67 68 59 52 46 44 51 67 88 99 98 98 88 84 82 80 78 82 81 79 77
96 100 84 70 59 64 76 78 71 76 73 69 66 63 62 68 68 64 58 54 54 58 64 69 66 58 56 78 88 99 100 100 95 91 87 85 80 70 64 65 67 69 76 86
100 100 87 65 56 62 79 79 66 68 67 56 61 61 68 74 83 78 63 61 59 60 57 51 50 57 77 77 78 81 90 98 99 94 84 81 76 72 67 67 77 85 92 92
100 98 81 61 58 56 53 78 76 73 62 60 62 64 66 66 77 90 95 79 77 83 93 99 84 97 89 92 98 99 100 100 100 99 96 90 88 84 80 81 82 81 79 77
96 95 95 78 59 51 46 47 78 86 91 85 78 72 71 75 82 90 100 100 100 98 84 84 88 88 100 100 98 96 100 100 100 100 100 100 98 96 93 92 90 90 92 94
83 89 100 90 84 53 44 45 54 78 92 95 90 86 82 82 84 88 91 93 96 99 99 98 98 97 98 96 91 100 88 83 100 100 100 100 100 100 100 98 95 93 95 96
70 57 93 97 95 84 55 43 50 54 52 49 43 43 58 73 78 83 86 84 85 84 80 76 74 73 74 76 76 74 76 74 60 76 100 100 100 100 100 100 100 100 98 99
51 89 100 88 86 96 98 57 44 48 53 50 46 42 40 39 40 52 70 77 72 61 46 37 32 32 33 42 57 63 62 61 60 58 63 97 100 100 100 100 100 100 100 98
67 100 93 91 97 100 91 63 58 58 59 58 54 49 43 36 45 51 50 38 27 23 22 24 24 25 26 27 24 16 29 57 56 54 56 66 85 100 100 100 100 99 95 86
67 97 100 100 100 100 100 100 100 94 82 69 60 56 49 40 37 37 35 32 30 28 27 27 27 27 28 33 35 28 19 16 35 60 57 57 81 99 100 100 100 100 100 100
94 98 100 100 100 100 100 100 98 100 100 100 100 90 72 58 46 40 37 33 30 28 28 28 29 30 33 37 38 32 24 20 17 33 66 65 63 74 87 100 100 100 100 100
100 100 99 100 100 100 93 90 98 100 100 100 100 100 100 99 91 77 74 73 68 62 57 53 51 52 50 44 42 33 31 30 26 25 41 68 71 68 72 89 100 100 100 100
98 98 99 99 98 93 93 89 84 98 97 90 89 91 93 92 88 78 65 63 58 54 56 54 56 60 65 69 74 72 60 46 38 45 49 65 71 71 72 70 72 82 85 96
96 98 100 100 98 98 90 93 96 96 94 93 87 82 80 87 90 81 73 70 70 73 73 71 68 70 84 86 97 97 81 66 66 75 67 67 70 73 74 74 73 75 79 82
100 100 100 100 100 100 100 100 100 100 100 100 100 99 98 98 98 91 85 83 77 68 71 36 61 99 89 91 100 100 100 100 100 100 99 98 93 88 86 83 81 82 86 89
100 100 100 100 100 100 98 91 74 66 59 52 43 43 48 55 72 80 94 98 83 76 61 49 23 78 100 100 100 100 100 100 100 100 100 100 100 100 100 100 100 100 100 100
100 100 100 100 100 100 98 87 76 73 66 56 46 38 34 30 23 24 65 94 88 90 88 72 37 18 42 98 100 94 80 78 89 94 97 98 98 97 95 89 80 59 34 22
100 100 100 100 99 100 99 86 77 73 71 70 72 75 72 62 42 30 27 24 23 25 38 28 36 26 21 20 28 30 21 17 17 16 16 17 18 20 23 26 29 30 30 30
100 100 100 100 100 94 96 97 93 94 92 83 82 77 74 74 76 74 68 48 28 28 29 27 32 31 24 25 23 20 20 19 19 20 23 25 26 26 26 27 32 43 52 58

GFSNGP_500_rhum_087.txt.gz
RH
100 100 100 94 100 98 82 86 72 79 68 87 98 66 61 66 49 53 43 31 25 23 23 29 30 27 23 21 29 31 28 28 30 29 33 39 49 54 54 60 59 60 62 62
100 100 100 97 100 100 92 85 67 68 66 80 66 51 38 37 50 43 33 26 25 27 29 32 32 28 24 24 27 39 44 46 46 41 43 54 59 66 69 68 74 79 71 74
97 100 100 87 61 68 69 89 90 50 56 60 65 52 43 32 26 39 32 29 29 40 41 39 33 35 37 38 38 49 49 49 51 52 54 58 66 67 71 71 78 83 81 71
96 100 100 95 74 91 72 74 72 69 69 91 63 67 59 58 35 29 33 31 30 44 44 45 40 42 47 46 48 54 60 59 50 51 58 68 78 93 88 88 88 78 87 81
98 95 93 86 97 97 91 94 89 68 85 85 71 70 76 63 46 49 41 34 29 38 46 46 52 57 56 67 69 71 75 85 92 73 65 71 71 77 90 97 91 82 77 92
100 98 84 71 79 78 85 87 88 84 75 59 52 55 54 53 63 74 76 66 62 57 55 60 58 57 68 72 84 89 89 85 86 90 91 86 87 92 90 96 99 92 73 59
87 95 89 78 98 94 75 74 76 65 56 50 48 47 49 54 46 43 54 66 65 65 70 77 82 77 68 74 71 74 90 89 91 94 94 94 98 100 98 98 92 96 97 98
100 100 83 76 87 83 72 66 61 59 56 56 56 51 49 51 49 50 49 51 53 58 64 66 68 70 68 67 64 81 81 71 75 75 98 99 100 100 97 95 100 94 95 100
99 94 100 84 76 76 72 65 59 57 61 64 61 59 60 56 54 55 55 53 54 57 58 58 60 63 66 65 70 61 51 46 43 49 85 96 100 97 97 99 98 96 98 100
89 97 98 100 89 77 72 71 73 70 70 67 69 72 68 61 60 59 61 63 62 60 58 59 62 64 66 68 59 54 65 75 82 86 95 97 95 97 98 98 91 87 86 89
81 100 99 100 83 79 76 72 68 75 69 73 72 70 66 65 63 64 70 72 65 60 58 58 61 64 66 62 55 58 72 77 81 87 90 96 96 94 93 91 89 90 91 97
76 100 99 82 89 81 78 72 82 80 67 68 68 58 60 61 64 73 79 83 76 63 61 61 65 65 62 69 100 83 76 83 89 97 95 96 98 100 100 97 90 90 89 86
61 90 98 88 86 76 71 68 63 76 78 78 75 65 66 66 71 68 73 77 96 92 87 78 78 98 100 91 80 82 100 89 95 93 100 96 94 100 100 100 100 98 95 93
47 81 100 94 79 82 66 57 52 48 52 78 87 86 85 86 82 80 80 83 90 96 100 100 96 86 78 75 75 99 100 82 95 100 81 89 100 100 100 100 100 100 100 100
39 62 100 100 92 88 84 72 50 45 42 46 63 66 69 70 78 83 82 78 77 77 79 86 90 90 91 89 84 84 86 89 89 89 89 88 74 75 99 100 100 100 100 100
32 54 98 99 85 85 84 81 74 62 45 38 41 47 44 41 38 38 42 55 72 84 85 80 74 72 72 68 61 54 52 53 58 62 63 62 65 73 64 82 100 100 100 100
36 54 93 75 80 98 85 89 95 96 78 48 39 40 40 40 38 36 34 40 45 52 58 57 42 27 26 27 27 25 24 24 23 18 15 27 54 56 57 58 65 83 99 99
44 48 57 82 100 100 100 100 100 100 92 75 65 65 62 55 48 44 37 35 39 43 37 30 26 24 24 25 26 26 26 26 25 30 31 20 15 25 53 58 56 75 90 99
61 57 90 100 100 100 100 100 100 100 99 95 95 92 85 77 69 60 51 44 39 37 34 31 29 27 26 25 27 31 34 38 41 40 37 30 22 18 23 39 64 67 74 86
80 64 85 100 100 100 100 100 100 97 92 96 99 96 94 94 98 99 97 92 79 64 63 71 73 65 55 48 42 39 41 44 46 45 44 35 30 27 27 34 49 71 77 78
100 100 100 100 100 100 96 95 89 88 92 86 100 100 98 98 100 100 100 97 92 80 70 66 61 57 56 59 62 62 61 63 64 72 75 61 59 53 40 43 47 61 73 74
93 91 90 93 95 80 77 86 93 95 100 100 100 98 98 96 92 91 92 97 98 85 80 74 68 63 63 47 54 65 63 85 82 87 98 92 86 71 64 71 66 65 68 73
92 92 95 99 100 96 100 100 100 100 100 100 100 100 100 100 99 94 91 92 90 95 91 90 79 70 53 40 44 91 96 92 94 93 100 100 99 94 97 100 100 100 99 98
100 100 100 100 100 100 100 99 98 96 88 79 62 46 37 33 32 30 26 25 38 66 88 96 89 84 75 74 46 34 97 100 100 100 100 100 100 100 100 100 100 100 100 100
100 100 100 100 100 100 100 100 98 96 89 83 80 79 78 74 67 57 44 34 28 24 25 37 50 59 63 60 36 29 22 61 93 82 72 84 97 100 100 100 100 100 100 100
100 100 98 100 100 100 100 100 100 100 90 84 81 79 78 77 74 72 73 76 75 70 54 37 30 29 30 29 33 34 26 24 24 23 22 22 21 19 20 21 26 23 23 25
100 100 100 100 100 100 100 100 100 100 97 94 94 95 96 94 92 90 88 81 72 73 73 71 68 65 58 46 36 33 31 30 30 28 24 23 22 21 20 21 23 24 25 26

GFSNGP_500_rhum_090.txt.gz
RH
85 100 100 99 100 100 95 90 88 90 93 100 100 94 86 74 72 51 49 46 44 36 31 25 23 26 35 37 32 26 23 25 34 36 31 32 35 30 30 32 34 40 43 49
100 91 96 87 100 93 86 94 81 88 81 100 96 89 86 70 62 56 51 48 51 50 40 29 27 26 36 37 34 36 38 35 34 33 39 40 41 38 35 34 35 45 58 62
100 100 100 100 100 91 95 100 96 77 96 98 84 64 47 44 43 37 32 44 43 36 30 25 27 31 32 38 44 42 36 36 38 43 48 49 51 51 52 53 56 56 60 65
100 99 94 83 100 96 78 70 67 61 69 100 90 63 49 61 46 33 30 28 42 43 34 27 27 29 40 47 52 50 48 46 47 52 55 55 51 49 50 53 60 65 73 79
100 97 100 100 100 100 87 86 88 71 73 70 56 65 78 50 60 57 41 32 29 34 34 31 29 40 50 47 55 49 48 54 63 62 62 67 65 74 67 56 61 71 73 77
99 96 99 95 94 98 99 90 81 75 77 82 81 66 62 71 63 63 64 55 45 48 40 37 36 47 50 47 51 50 56 63 68 67 72 74 69 76 78 80 86 87 91 75
97 100 100 96 100 100 87 77 67 73 86 93 83 71 63 54 52 54 58 57 72 79 76 67 69 68 64 72 76 78 77 70 60 60 74 78 79 81 79 87 82 95 95 99
99 100 92 91 95 96 78 75 63 67 82 70 69 54 49 44 42 42 46 61 47 49 67 73 74 72 76 88 86 77 69 59 56 63 76 58 62 70 81 82 83 96 94 100
90 93 92 93 86 78 80 74 68 66 66 64 60 54 53 52 52 48 47 48 49 50 49 53 59 68 73 70 69 70 68 63 65 65 53 42 39 57 83 96 98 100 100 100
95 98 100 100 82 85 74 73 73 68 63 63 64 65 60 59 60 61 58 58 57 56 56 59 61 61 62 62 65 66 65 66 60 57 64 71 80 86 90 94 96 95 98 98
58 83 96 76 57 71 100 94 88 81 75 72 70 68 70 74 72 67 65 64 64 68 68 64 60 58 58 61 64 67 71 66 59 68 72 71 73 78 90 95 97 96 94 98
74 82 68 78 70 56 100 98 89 92 98 91 72 70 73 70 65 65 65 70 73 78 80 68 64 62 61 62 62 61 56 72 77 71 71 76 85 88 90 93 96 100 99 95
53 56 73 76 66 64 99 100 99 98 100 96 76 71 70 63 60 60 61 64 71 83 76 83 78 72 68 68 95 98 82 100 87 87 88 83 86 100 99 100 100 98 100 100
25 37 63 76 94 100 100 100 95 82 91 93 87 81 85 82 72 73 72 74 75 76 82 93 94 87 91 96 99 99 96 83 84 99 97 88 91 96 77 79 97 100 100 100
19 34 56 79 99 100 100 100 77 63 58 56 54 58 66 79 87 88 87 86 85 85 84 83 85 90 96 95 97 98 100 99 94 88 85 85 84 83 87 90 86 79 92 100
31 33 50 72 94 99 100 100 100 89 62 51 48 46 44 49 50 48 46 48 54 63 74 80 83 84 85 88 88 86 82 78 73 66 57 49 47 55 65 65 66 72 92 88
41 33 43 68 83 100 99 100 97 96 99 97 84 68 55 40 40 44 43 39 37 35 35 39 45 57 70 74 65 44 36 30 26 25 24 24 26 28 25 17 24 53 60 60
44 39 44 61 93 92 85 88 88 96 100 100 100 97 78 59 54 52 56 52 48 42 35 38 47 53 49 36 29 28 27 26 26 26 25 24 23 23 25 28 30 21 26 55
69 45 52 76 86 65 98 100 97 94 100 100 99 98 97 89 80 74 67 63 60 55 47 41 39 38 35 32 29 28 27 26 26 30 35 38 40 41 45 44 39 32 25 25
83 67 59 73 61 82 100 84 100 100 97 97 94 91 92 98 100 100 99 98 97 96 88 72 62 56 53 60 69 69 57 45 39 36 33 33 37 43 52 54 50 42 37 35
72 81 92 65 94 100 100 100 100 100 97 88 89 90 85 93 100 100 100 100 100 100 99 98 97 89 72 67 62 58 57 56 46 51 53 56 57 61 69 73 82 74 65 66
93 86 99 100 100 100 97 94 86 87 89 82 92 96 100 100 100 100 100 98 93 87 88 95 94 84 80 77 78 69 66 45 41 62 83 82 76 69 79 93 100 100 99 86
88 97 96 98 99 98 98 100 100 99 100 100 100 100 100 100 100 100 99 94 90 80 79 79 79 80 82 90 95 82 71 72 78 42 92 94 91 96 99 95 97 100 100 100
83 96 100 99 99 100 100 100 100 100 100 100 100 96 86 71 50 42 42 43 38 31 25 23 23 27 38 66 80 81 82 86 62 32 24 65 100 100 100 100 100 100 100 100
69 87 98 100 100 97 98 100 99 99 99 100 100 100 98 96 93 88 84 81 79 77 77 74 63 48 38 33 32 31 29 28 31 33 28 26 30 60 70 70 74 94 100 100
72 83 89 96 100 100 100 100 100 100 100 100 97 97 99 98 98 99 100 100 96 90 84 73 66 68 68 65 63 62 60 59 56 50 44 39 36 34 28 24 24 25 25 26
74 78 91 95 92 96 100 97 100 100 99 98 100 100 100 98 99 99 100 99 98 90 76 73 78 76 71 68 66 64 61 57 54 53 54 57 56 53 47 43 43 47 49 44

GFSNGP_500_rhum_093.txt.gz
RH
100 98 100 100 100 99 94 98 96 86 94 100 100 100 91 91 70 51 35 23 20 22 19 17 17 18 22 26 33 36 30 31 33 29 37 41 39 42 37 28 31 35 41 42
100 100 85 92 97 100 100 100 94 88 78 100 97 98 95 94 91 71 46 53 63 64 60 52 39 33 30 26 28 39 40 32 27 22 18 19 26 28 24 23 24 27 36 37
81 100 98 85 91 100 100 98 92 78 95 99 84 87 92 86 75 70 65 60 59 66 52 50 54 47 36 31 30 38 42 40 33 34 37 39 41 41 36 38 40 41 42 46
94 100 98 100 98 100 83 91 88 59 96 100 99 91 84 63 55 52 55 45 39 39 45 44 41 36 30 32 35 37 41 48 50 57 62 57 52 52 51 53 53 52 50 49
92 100 99 100 100 96 98 100 96 82 82 80 71 63 80 75 53 44 37 38 40 34 30 41 40 38 31 32 42 46 51 48 46 46 49 52 52 53 60 67 64 58 61 68
78 100 100 100 100 93 99 100 95 86 80 84 75 51 62 57 61 52 41 44 50 49 43 34 34 44 44 35 34 55 54 48 49 53 54 60 58 60 63 68 68 67 65 69
77 85 97 100 86 90 84 86 92 84 75 69 68 76 80 79 73 63 59 62 66 65 63 53 58 59 57 50 48 51 61 64 64 62 64 68 60 61 65 67 69 69 71 84
74 70 83 88 100 80 76 95 88 80 72 62 64 85 94 90 79 69 61 55 53 57 61 54 62 79 81 81 78 83 79 72 76 85 81 74 61 57 65 54 49 65 85 87
69 78 80 68 63 78 71 62 82 95 100 78 65 78 75 92 61 54 50 49 49 47 52 60 54 55 77 85 83 85 84 86 88 81 70 63 60 62 54 42 39 62 84 94
45 55 81 100 100 100 76 59 68 85 86 82 77 76 67 63 64 65 62 57 54 54 54 58 60 62 66 69 71 75 73 70 69 69 67 67 62 60 70 77 83 88 88 90
60 88 81 65 91 100 80 88 99 88 91 88 79 74 72 73 69 66 67 68 67 63 61 62 63 65 67 67 65 64 65 69 70 71 72 66 61 72 70 68 70 76 82 86
60 63 70 89 81 77 96 80 86 100 100 100 89 87 82 77 76 78 77 73 68 66 65 68 74 75 71 66 62 61 64 68 70 70 65 65 72 72 70 77 94 96 94 93
52 42 33 36 81 82 86 82 96 100 100 100 100 100 82 74 75 72 63 64 65 66 74 79 88 82 83 71 67 66 66 78 100 72 76 100 87 87 89 91 100 97 94 98
49 35 26 19 31 82 82 84 71 100 100 100 100 100 89 81 79 79 72 71 70 70 74 77 81 82 95 97 90 86 86 88 96 100 100 98 91 100 98 96 97 97 86 75
35 36 28 22 49 79 78 81 86 100 100 100 100 100 100 100 100 98 96 93 87 84 83 83 84 86 88 91 93 99 100 98 100 100 100 99 99 97 94 87 87 84 89 94
27 40 35 40 72 71 74 100 100 100 100 98 83 69 66 69 68 64 61 60 61 63 70 81 86 86 88 88 89 90 92 93 94 94 93 91 86 77 61 42 33 31 38 60
28 44 40 52 73 86 100 100 100 100 100 100 100 93 75 57 51 50 47 47 48 50 47 43 42 42 45 50 60 75 85 84 74 62 54 46 34 28 26 25 26 25 26 29
40 45 41 44 80 96 100 100 100 100 100 98 100 100 100 100 97 93 79 62 52 53 54 54 52 46 42 50 59 62 59 49 37 34 32 31 28 26 25 24 24 24 25 26
51 59 56 49 65 95 100 96 86 89 99 100 96 100 96 95 94 96 99 90 81 73 68 65 61 57 51 47 47 46 43 40 36 32 30 29 30 38 45 49 47 48 50 51
51 64 62 52 60 92 89 69 78 98 99 99 100 99 98 96 94 94 94 100 100 100 99 94 87 89 88 78 74 72 66 72 78 73 62 51 48 44 44 45 42 43 46 50
46 74 71 76 61 57 68 73 100 99 100 100 100 98 98 90 80 81 82 98 100 100 100 100 100 100 100 100 100 99 87 77 70 68 64 60 46 45 46 62 64 60 61 70
36 56 76 82 82 98 90 91 100 100 81 69 73 82 90 81 85 93 100 100 100 100 100 100 99 95 95 98 97 89 82 80 78 78 76 65 64 68 49 84 86 72 71 76
32 44 60 78 96 87 97 95 95 98 97 99 100 99 96 99 100 100 100 100 100 93 80 68 58 53 59 69 68 71 71 70 80 84 84 79 78 71 31 30 72 83 81 94
42 43 53 68 85 100 100 100 100 100 100 100 98 94 99 100 100 94 79 61 54 62 66 67 62 55 45 34 28 27 28 28 28 27 28 29 33 33 29 26 26 34 65 86
42 53 51 62 89 98 100 100 100 100 100 100 100 100 100 100 100 100 100 100 98 96 94 92 85 78 71 69 71 68 66 63 61 59 58 56 55 55 52 48 42 38 35 30
34 48 61 55 73 100 100 100 100 100 100 99 96 100 100 100 99 100 100 100 100 100 100 100 97 92 84 83 79 72 67 65 61 60 58 55 54 51 49 48 48 50 50 50
43 57 79 76 68 90 100 100 100 100 100 99 100 100 100 100 99 100 100 100 100 100 100 100 100 99 92 79 75 79 80 77 76 76 72 68 61 54 47 42 37 35 35 38

GFSNGP_500_rhum_099.txt.gz
RH
51 100 100 99 93 97 92 90 82 62 65 94 100 100 99 95 93 84 75 63 44 49 50 40 40 27 26 31 32 27 25 23 24 25 32 41 44 40 35 37 42 66 71 76
16 91 100 95 100 100 100 100 83 85 79 100 100 86 82 78 67 62 60 52 40 37 29 25 24 23 20 41 40 34 34 36 34 35 38 36 35 36 27 25 26 26 36 28
10 42 90 86 100 100 96 100 99 100 92 100 96 84 73 74 86 71 65 64 61 48 38 27 25 18 19 24 30 30 26 24 26 28 32 33 36 40 57 44 30 28 28 29
15 18 71 84 94 74 73 88 87 87 100 100 100 97 94 91 59 64 66 65 72 74 76 77 68 45 30 23 21 19 20 22 27 29 29 28 31 30 37 35 30 30 29 28
25 37 82 100 95 81 66 54 55 60 69 94 100 96 95 88 70 74 83 75 81 82 96 94 81 81 60 47 41 43 49 54 48 38 38 38 34 31 32 32 33 34 36 34
24 57 64 100 97 88 85 88 79 76 74 81 90 91 100 98 71 63 76 77 82 87 88 91 76 72 72 71 62 63 64 58 59 68 54 44 40 40 39 42 48 49 47 41
14 23 41 84 96 93 97 100 100 100 100 92 85 98 100 96 81 81 78 80 82 79 73 72 83 92 87 72 55 48 44 46 50 49 44 40 42 40 50 58 57 51 49 48
17 19 29 58 78 99 100 99 99 100 100 100 98 93 100 99 85 70 66 67 66 80 70 64 66 63 75 76 65 56 55 52 48 45 42 42 44 46 44 42 48 53 59 64
14 20 38 41 57 82 93 93 92 97 94 100 100 100 100 100 91 74 67 63 58 59 64 66 68 66 66 64 63 58 59 61 68 71 72 72 75 82 86 84 78 77 84 80
13 22 38 53 65 69 57 66 77 86 88 80 83 99 98 100 98 80 70 77 84 83 80 77 72 68 62 58 57 58 61 57 59 74 86 92 94 94 93 96 92 86 81 70
7 11 21 32 45 54 56 56 88 91 83 68 70 68 84 100 100 99 88 90 89 88 77 66 61 58 56 54 53 56 61 64 68 77 88 93 95 94 92 90 82 78 74 71
5 7 12 18 33 37 40 43 44 92 100 100 96 80 75 87 95 97 97 100 92 91 90 77 71 71 70 67 63 64 66 67 70 74 76 74 70 68 68 70 73 75 75 73
5 4 5 7 18 27 30 29 41 79 100 100 100 98 100 100 100 100 100 100 100 96 87 87 86 80 77 74 71 73 78 79 79 77 74 73 71 69 75 86 86 71 70 96
5 5 4 4 8 17 20 19 27 54 100 97 94 91 100 100 100 98 99 100 100 94 80 73 72 72 73 75 81 83 90 93 84 87 90 81 75 74 89 94 80 96 94 100
5 5 4 5 10 16 14 16 26 45 92 99 97 82 92 98 100 98 100 96 100 100 99 95 90 85 81 82 87 89 94 90 88 94 94 95 96 99 98 97 94 98 100 99
6 6 5 6 22 31 21 38 45 78 90 98 94 84 89 100 100 99 100 100 100 100 100 100 100 99 99 98 98 97 95 95 97 98 96 94 94 95 95 97 98 99 100 95
5 6 6 6 21 50 50 61 87 100 90 74 81 90 100 100 100 100 100 100 96 93 98 98 69 50 48 47 50 50 50 49 48 49 57 66 80 91 95 96 93 80 67 58
6 6 7 7 9 30 56 60 58 57 69 71 94 97 98 100 100 100 100 100 100 100 99 95 89 81 75 74 67 54 46 46 49 48 45 47 56 62 64 63 56 51 46 40
7 7 8 8 8 14 32 51 73 84 100 96 98 100 95 100 94 100 100 99 99 96 90 80 76 77 80 84 78 67 57 57 61 61 56 51 47 49 49 48 48 52 60 67
9 10 10 10 10 8 18 45 41 71 83 86 98 98 100 98 93 98 96 97 98 88 90 79 71 73 82 93 93 93 94 97 97 94 98 97 96 94 95 99 100 97 82 72
14 14 14 13 13 10 9 29 67 47 48 83 82 68 69 78 81 89 69 67 73 72 72 76 75 82 96 100 100 100 100 100 100 100 100 100 100 100 100 100 91 81 75 67
19 18 17 16 16 12 10 11 32 79 100 88 68 65 96 95 99 96 92 78 64 63 75 80 86 93 98 100 100 100 99 99 100 100 100 100 100 100 100 95 79 64 58 65
30 23 22 19 18 14 12 10 16 36 70 98 100 100 100 100 100 94 80 79 83 87 97 100 100 100 100 87 59 46 47 46 41 36 32 30 30 31 33 33 36 40 46 50
40 28 25 21 20 16 13 12 12 28 46 86 92 100 100 100 100 100 93 86 88 99 100 100 99 80 79 93 97 94 92 88 84 83 80 78 76 75 74 71 67 64 61 59
48 35 27 24 20 16 15 12 13 17 51 61 92 100 100 100 100 100 100 100 96 94 95 96 99 100 100 100 100 100 100 100 100 100 99 99 99 98 96 94 91 87 83 77
50 36 29 26 18 16 15 14 16 26 51 94 81 95 100 100 100 100 100 100 100 100 100 100 100 100 100 100 100 100 100 100 100 99 98 97 95 94 94 90 85 83 78 72
46 37 29 26 17 16 15 14 22 39 60 86 100 98 100 100 100 100 100 100 100 100 100 100 100 100 100 100 100 100 99 100 100 100 99 98 95 94 95 95 96 92 82 75

GFSNGP_500_rhum_102.txt.gz
RH
9 22 89 94 77 83 100 85 97 74 78 91 86 73 79 95 98 91 82 68 74 82 79 60 50 50 43 35 30 26 27 29 32 33 26 19 20 21 23 24 24 24 32 30
8 12 58 68 87 100 99 90 75 70 70 82 100 90 81 100 100 93 81 73 76 80 73 63 50 65 59 50 41 39 37 35 33 28 26 25 24 24 26 27 28 34 36 31
6 12 28 80 98 98 100 100 90 78 89 100 90 73 76 86 88 87 85 86 82 77 70 53 43 41 43 36 33 33 29 27 31 36 33 32 34 40 41 40 37 38 40 50
6 12 19 56 94 97 90 99 98 75 96 88 90 80 76 73 64 80 88 70 68 76 70 63 59 48 39 31 26 23 19 20 40 40 34 28 26 27 29 31 36 38 36 39
6 12 28 75 87 97 93 71 67 78 100 88 98 100 94 96 82 78 72 65 85 89 85 85 82 64 46 38 32 27 23 20 21 23 22 20 21 22 24 26 27 28 28 32
6 10 19 47 99 96 92 84 65 68 80 68 70 62 92 89 85 83 81 94 91 86 97 92 91 87 78 66 58 47 45 40 37 35 36 40 46 48 45 43 45 41 38 38
6 9 18 22 58 98 100 89 100 100 100 100 91 74 68 79 94 100 100 91 69 60 74 87 98 97 93 85 91 73 62 60 63 60 66 66 59 59 67 71 62 46 41 52
6 7 13 26 40 68 95 100 100 96 95 100 100 100 100 100 96 99 100 92 66 69 74 79 89 98 95 91 87 82 74 75 70 66 58 49 53 60 51 50 46 46 47 45
7 6 11 20 45 60 59 76 98 99 98 100 100 100 100 100 100 95 95 100 90 75 69 71 71 87 98 92 85 70 77 84 83 79 75 70 60 55 54 54 58 64 70 78
7 5 7 11 17 28 47 66 63 56 78 87 96 96 98 100 100 100 100 100 96 81 69 66 68 67 68 70 68 70 68 66 64 61 61 62 73 83 84 82 83 89 95 93
7 5 6 6 9 18 29 37 45 57 54 59 81 80 85 80 76 91 100 100 99 84 73 81 91 88 88 83 75 67 62 58 58 58 62 65 63 68 80 88 92 91 92 88
8 7 6 6 5 7 16 26 30 38 50 66 81 90 81 69 69 66 74 83 96 97 92 92 91 90 81 69 64 62 61 62 61 62 64 68 70 74 79 79 76 73 69 67
8 7 7 6 6 6 5 8 15 23 39 54 78 95 96 93 74 71 76 89 97 100 96 100 97 95 93 84 79 78 75 71 70 70 72 74 74 74 73 72 70 67 74 82
8 8 8 8 8 7 7 6 6 16 21 50 96 99 100 95 93 92 86 100 98 100 97 100 100 100 100 100 97 91 85 87 85 82 84 86 85 85 86 78 75 74 82 91
8 9 8 8 8 8 6 7 7 15 22 64 100 96 89 88 96 88 97 100 100 100 100 100 100 100 100 99 96 89 85 87 90 95 100 100 92 94 96 99 98 96 94 91
9 8 8 8 7 7 6 15 18 16 30 98 100 94 86 84 86 99 100 99 100 100 100 100 100 100 100 100 100 100 99 99 99 99 99 99 98 98 96 96 96 96 98 92
12 10 7 7 8 8 8 21 39 56 59 88 94 88 83 82 73 77 90 100 100 100 100 100 100 100 100 84 64 60 59 58 60 62 63 66 65 68 69 70 76 88 96 94
18 11 10 10 9 9 9 8 20 38 59 74 89 96 82 65 75 84 89 91 95 96 97 100 100 100 100 99 93 85 72 70 71 64 51 45 47 50 47 45 52 61 66 67
40 23 16 15 13 11 10 10 8 14 42 50 72 84 99 100 97 92 92 94 100 97 100 100 100 100 87 76 73 73 73 75 77 76 70 60 59 62 61 55 52 51 52 50
54 47 34 24 18 15 14 12 11 8 14 31 51 70 85 96 99 98 100 97 99 100 99 76 90 86 86 73 65 65 69 80 86 91 93 96 92 84 85 89 93 92 90 92
58 60 54 41 28 22 18 15 13 10 9 9 31 50 45 68 93 86 73 73 75 90 96 81 76 61 52 50 57 65 86 91 93 97 100 100 100 100 100 100 100 100 100 100
60 66 65 56 42 29 22 18 15 12 10 9 10 25 71 80 80 81 92 99 100 100 99 87 78 69 65 68 68 83 89 96 100 96 95 98 100 100 100 100 100 100 98 94
63 68 69 66 54 37 27 23 18 15 12 10 10 14 37 70 98 100 97 100 100 100 98 98 95 98 97 99 100 97 97 90 72 60 55 53 49 43 40 39 42 46 51 60
63 69 72 71 60 42 32 28 20 17 13 11 10 12 25 55 92 100 100 100 100 100 100 100 99 100 100 100 100 94 85 94 99 99 97 94 89 85 83 83 87 97 99 99
60 67 73 74 60 46 36 29 22 18 14 11 10 13 22 68 82 98 100 100 100 100 100 100 91 96 100 100 100 100 100 100 100 100 100 100 100 100 100 100 99 99 100 100
60 66 73 70 57 45 37 27 21 17 13 11 11 17 44 66 99 100 100 100 100 100 100 100 100 100 100 100 100 100 100 100 100 100 100 100 100 100 100 100 100 99 98 98
61 67 71 66 55 45 33 25 20 16 12 11 13 22 62 87 99 100 100 100 100 100 100 100 100 100 100 100 100 100 100 100 100 100 100 100 100 100 98 97 97 97 98 98